Observation data for Odell on 12/09/2018      Previous  Date       Current Mesonet Observations  Soil Data  Daily Summary Page  Observations in Plain Language
KOD1 090600Z 30006KT M02/M04 A3033 RMK A01 T10221042  RH  086%=      5-min Rain = 0
KOD1 090601Z 31006KT M02/M04 A3033 RMK A01 T10221041  RH  087%=      5-min Rain = 0
KOD1 090602Z 30007KT M02/M04 A3033 RMK A01 T10221041  RH  087%=      5-min Rain = 0
KOD1 090603Z 30007KT M02/M04 A3033 RMK A01 T10221041  RH  087%=      5-min Rain = 0
KOD1 090604Z 30007KT M02/M04 A3033 RMK A01 T10211040  RH  087%=      5-min Rain = 0
KOD1 090605Z 30007KT M02/M04 A3033 RMK A01 T10211039  RH  087%=      5-min Rain = 0
KOD1 090606Z 31006KT M02/M04 A3033 RMK A01 T10201038  RH  088%=      5-min Rain = 0
KOD1 090607Z 30006KT M02/M04 A3033 RMK A01 T10201038  RH  088%=      5-min Rain = 0
KOD1 090608Z 30006KT M02/M04 A3033 RMK A01 T10201037  RH  088%=      5-min Rain = 0
KOD1 090609Z 30006KT M02/M04 A3033 RMK A01 T10191036  RH  088%=      5-min Rain = 0
KOD1 090610Z 30006KT M02/M04 A3033 RMK A01 T10181035  RH  088%=      5-min Rain = 0
KOD1 090611Z 30005KT M02/M04 A3033 RMK A01 T10171035  RH  088%=      5-min Rain = 0
KOD1 090612Z 30005KT M02/M03 A3033 RMK A01 T10171034  RH  088%=      5-min Rain = 0
KOD1 090613Z 30005KT M02/M03 A3033 RMK A01 T10161034  RH  088%=      5-min Rain = 0
KOD1 090614Z 30005KT M02/M03 A3033 RMK A01 T10151034  RH  087%=      5-min Rain = 0
KOD1 090615Z 30005KT M02/M03 A3033 RMK A01 T10151033  RH  087%=      5-min Rain = 0
KOD1 090616Z 30004KT M02/M03 A3033 RMK A01 T10151033  RH  087%=      5-min Rain = 0
KOD1 090617Z 30005KT M01/M03 A3033 RMK A01 T10141033  RH  087%=      5-min Rain = 0
KOD1 090618Z 30004KT M01/M03 A3033 RMK A01 T10141033  RH  087%=      5-min Rain = 0
KOD1 090619Z 30005KT M01/M03 A3033 RMK A01 T10141033  RH  087%=      5-min Rain = 0
KOD1 090620Z 30005KT M01/M03 A3033 RMK A01 T10141033  RH  087%=      5-min Rain = 0
KOD1 090621Z 30005KT M01/M03 A3033 RMK A01 T10141034  RH  087%=      5-min Rain = 0
KOD1 090622Z 30005KT M01/M03 A3033 RMK A01 T10141034  RH  087%=      5-min Rain = 0
KOD1 090623Z 31005KT M01/M03 A3033 RMK A01 T10141034  RH  086%=      5-min Rain = 0
KOD1 090624Z 31005KT M02/M04 A3033 RMK A01 T10151035  RH  086%=      5-min Rain = 0
KOD1 090625Z 31005KT M02/M04 A3033 RMK A01 T10151035  RH  086%=      5-min Rain = 0
KOD1 090626Z 31006KT M02/M04 A3033 RMK A01 T10151035  RH  086%=      5-min Rain = 0
KOD1 090627Z 31006KT M02/M04 A3033 RMK A01 T10151036  RH  086%=      5-min Rain = 0
KOD1 090628Z 31006KT M02/M04 A3033 RMK A01 T10161036  RH  086%=      5-min Rain = 0
KOD1 090629Z 31006KT M02/M04 A3033 RMK A01 T10161037  RH  086%=      5-min Rain = 0
KOD1 090630Z 32006KT M02/M04 A3033 RMK A01 T10161037  RH  086%=      5-min Rain = 0
KOD1 090631Z 32005KT M02/M04 A3033 RMK A01 T10161038  RH  086%=      5-min Rain = 0
KOD1 090632Z 32006KT M02/M04 A3033 RMK A01 T10171038  RH  085%=      5-min Rain = 0
KOD1 090633Z 32006KT M02/M04 A3033 RMK A01 T10171038  RH  085%=      5-min Rain = 0
KOD1 090634Z 32006KT M02/M04 A3033 RMK A01 T10171039  RH  085%=      5-min Rain = 0
KOD1 090635Z 32005KT M02/M04 A3033 RMK A01 T10171039  RH  085%=      5-min Rain = 0
KOD1 090636Z 32006KT M02/M04 A3033 RMK A01 T10171039  RH  085%=      5-min Rain = 0
KOD1 090637Z 33006KT M02/M04 A3033 RMK A01 T10171039  RH  085%=      5-min Rain = 0
KOD1 090638Z 33005KT M02/M04 A3033 RMK A01 T10171040  RH  084%=      5-min Rain = 0
KOD1 090639Z 33005KT M02/M04 A3033 RMK A01 T10171040  RH  084%=      5-min Rain = 0
KOD1 090640Z 33005KT M02/M04 A3032 RMK A01 T10161040  RH  084%=      5-min Rain = 0
KOD1 090641Z 33005KT M02/M04 A3032 RMK A01 T10161041  RH  084%=      5-min Rain = 0
KOD1 090642Z 33005KT M02/M04 A3032 RMK A01 T10161041  RH  083%=      5-min Rain = 0
KOD1 090643Z 32005KT M02/M04 A3032 RMK A01 T10161042  RH  083%=      5-min Rain = 0
KOD1 090644Z 33005KT M02/M04 A3032 RMK A01 T10161042  RH  083%=      5-min Rain = 0
KOD1 090645Z 33005KT M02/M04 A3033 RMK A01 T10161042  RH  082%=      5-min Rain = 0
KOD1 090646Z 33005KT M02/M04 A3033 RMK A01 T10161043  RH  082%=      5-min Rain = 0
KOD1 090647Z 32005KT M02/M04 A3033 RMK A01 T10161043  RH  082%=      5-min Rain = 0
KOD1 090648Z 32005KT M02/M04 A3033 RMK A01 T10171044  RH  082%=      5-min Rain = 0
KOD1 090649Z 32005KT M02/M04 A3033 RMK A01 T10171044  RH  082%=      5-min Rain = 0
KOD1 090650Z 32005KT M02/M05 A3033 RMK A01 T10171045  RH  081%=      5-min Rain = 0
KOD1 090651Z 32006KT M02/M05 A3033 RMK A01 T10171045  RH  081%=      5-min Rain = 0
KOD1 090652Z 32005KT M02/M05 A3033 RMK A01 T10171046  RH  081%=      5-min Rain = 0
KOD1 090653Z 32005KT M02/M05 A3033 RMK A01 T10171046  RH  081%=      5-min Rain = 0
KOD1 090654Z 32005KT M02/M05 A3033 RMK A01 T10171046  RH  081%=      5-min Rain = 0
KOD1 090655Z 32006KT M02/M05 A3033 RMK A01 T10171046  RH  080%=      5-min Rain = 0
KOD1 090656Z 32006KT M02/M05 A3033 RMK A01 T10171047  RH  080%=      5-min Rain = 0
KOD1 090657Z 32005KT M02/M05 A3033 RMK A01 T10181047  RH  080%=      5-min Rain = 0
KOD1 090658Z 32005KT M02/M05 A3033 RMK A01 T10181047  RH  080%=      5-min Rain = 0
KOD1 090659Z 32005KT M02/M05 A3033 RMK A01 T10181047  RH  081%=      5-min Rain = 0
KOD1 090700Z 32005KT M02/M05 A3033 RMK A01 T10191048  RH  081%=      5-min Rain = 0
KOD1 090701Z 32005KT M02/M05 A3033 RMK A01 T10191048  RH  081%=      5-min Rain = 0
KOD1 090702Z 32005KT M02/M05 A3033 RMK A01 T10201048  RH  081%=      5-min Rain = 0
KOD1 090703Z 32005KT M02/M05 A3033 RMK A01 T10201049  RH  081%=      5-min Rain = 0
KOD1 090704Z 32005KT M02/M05 A3033 RMK A01 T10211049  RH  081%=      5-min Rain = 0
KOD1 090705Z 32005KT M02/M05 A3033 RMK A01 T10211049  RH  081%=      5-min Rain = 0
KOD1 090706Z 31005KT M02/M05 A3033 RMK A01 T10221050  RH  081%=      5-min Rain = 0
KOD1 090707Z 31005KT M02/M05 A3033 RMK A01 T10221050  RH  081%=      5-min Rain = 0
KOD1 090708Z 31005KT M02/M05 A3033 RMK A01 T10231050  RH  082%=      5-min Rain = 0
KOD1 090709Z 31005KT M02/M05 A3033 RMK A01 T10241051  RH  082%=      5-min Rain = 0
KOD1 090710Z 32005KT M02/M05 A3033 RMK A01 T10241051  RH  082%=      5-min Rain = 0
KOD1 090711Z 32005KT M02/M05 A3033 RMK A01 T10241051  RH  082%=      5-min Rain = 0
KOD1 090712Z 32005KT M03/M05 A3033 RMK A01 T10251051  RH  082%=      5-min Rain = 0
KOD1 090713Z 32005KT M03/M05 A3033 RMK A01 T10251051  RH  082%=      5-min Rain = 0
KOD1 090714Z 32006KT M03/M05 A3033 RMK A01 T10251051  RH  082%=      5-min Rain = 0
KOD1 090715Z 32006KT M03/M05 A3033 RMK A01 T10261051  RH  083%=      5-min Rain = 0
KOD1 090716Z 32006KT M03/M05 A3033 RMK A01 T10261051  RH  083%=      5-min Rain = 0
KOD1 090717Z 31006KT M03/M05 A3033 RMK A01 T10261051  RH  083%=      5-min Rain = 0
KOD1 090718Z 31006KT M03/M05 A3033 RMK A01 T10271051  RH  083%=      5-min Rain = 0
KOD1 090719Z 31005KT M03/M05 A3033 RMK A01 T10271051  RH  083%=      5-min Rain = 0
KOD1 090720Z 31005KT M03/M05 A3033 RMK A01 T10271051  RH  084%=      5-min Rain = 0
KOD1 090721Z 31006KT M03/M05 A3034 RMK A01 T10271051  RH  084%=      5-min Rain = 0
KOD1 090722Z 31006KT M03/M05 A3034 RMK A01 T10271050  RH  084%=      5-min Rain = 0
KOD1 090723Z 31005KT M03/M05 A3034 RMK A01 T10271049  RH  084%=      5-min Rain = 0
KOD1 090724Z 31006KT M03/M05 A3034 RMK A01 T10271049  RH  085%=      5-min Rain = 0
KOD1 090725Z 31005KT M03/M05 A3034 RMK A01 T10261048  RH  085%=      5-min Rain = 0
KOD1 090726Z 31006KT M03/M05 A3034 RMK A01 T10261048  RH  085%=      5-min Rain = 0
KOD1 090727Z 31006KT M03/M05 A3034 RMK A01 T10251047  RH  085%=      5-min Rain = 0
KOD1 090728Z 31006KT M03/M05 A3034 RMK A01 T10251047  RH  085%=      5-min Rain = 0
KOD1 090729Z 31006KT M03/M05 A3034 RMK A01 T10251046  RH  085%=      5-min Rain = 0
KOD1 090730Z 31006KT M02/M05 A3034 RMK A01 T10241046  RH  085%=      5-min Rain = 0
KOD1 090731Z 31006KT M02/M05 A3034 RMK A01 T10241046  RH  085%=      5-min Rain = 0
KOD1 090732Z 31005KT M02/M05 A3034 RMK A01 T10231045  RH  085%=      5-min Rain = 0
KOD1 090733Z 31005KT M02/M05 A3034 RMK A01 T10231045  RH  085%=      5-min Rain = 0
KOD1 090734Z 31005KT M02/M05 A3033 RMK A01 T10221045  RH  085%=      5-min Rain = 0
KOD1 090735Z 31005KT M02/M05 A3033 RMK A01 T10221045  RH  084%=      5-min Rain = 0
KOD1 090736Z 31006KT M02/M04 A3033 RMK A01 T10221044  RH  084%=      5-min Rain = 0
KOD1 090737Z 31005KT M02/M04 A3033 RMK A01 T10211044  RH  084%=      5-min Rain = 0
KOD1 090738Z 31006KT M02/M04 A3033 RMK A01 T10211044  RH  084%=      5-min Rain = 0
KOD1 090739Z 31006KT M02/M04 A3033 RMK A01 T10211044  RH  084%=      5-min Rain = 0
KOD1 090740Z 32005KT M02/M04 A3033 RMK A01 T10211044  RH  084%=      5-min Rain = 0
KOD1 090741Z 32005KT M02/M04 A3033 RMK A01 T10201044  RH  084%=      5-min Rain = 0
KOD1 090742Z 32005KT M02/M05 A3033 RMK A01 T10201045  RH  083%=      5-min Rain = 0
KOD1 090743Z 32005KT M02/M05 A3033 RMK A01 T10201045  RH  083%=      5-min Rain = 0
KOD1 090744Z 32005KT M02/M05 A3033 RMK A01 T10201045  RH  083%=      5-min Rain = 0
KOD1 090745Z 32005KT M02/M05 A3033 RMK A01 T10201045  RH  083%=      5-min Rain = 0
KOD1 090746Z 32005KT M02/M05 A3033 RMK A01 T10201045  RH  083%=      5-min Rain = 0
KOD1 090747Z 32005KT M02/M05 A3033 RMK A01 T10201045  RH  083%=      5-min Rain = 0
KOD1 090748Z 31005KT M02/M05 A3033 RMK A01 T10201045  RH  083%=      5-min Rain = 0
KOD1 090749Z 32005KT M02/M05 A3033 RMK A01 T10201046  RH  082%=      5-min Rain = 0
KOD1 090750Z 32005KT M02/M05 A3033 RMK A01 T10201046  RH  082%=      5-min Rain = 0
KOD1 090751Z 32005KT M02/M05 A3033 RMK A01 T10201046  RH  082%=      5-min Rain = 0
KOD1 090752Z 32005KT M02/M05 A3033 RMK A01 T10201046  RH  082%=      5-min Rain = 0
KOD1 090753Z 32005KT M02/M05 A3033 RMK A01 T10201046  RH  082%=      5-min Rain = 0
KOD1 090754Z 32005KT M02/M05 A3033 RMK A01 T10201046  RH  082%=      5-min Rain = 0
KOD1 090755Z 32005KT M02/M05 A3033 RMK A01 T10201046  RH  082%=      5-min Rain = 0
KOD1 090756Z 32005KT M02/M05 A3033 RMK A01 T10201046  RH  083%=      5-min Rain = 0
KOD1 090757Z 31005KT M02/M05 A3033 RMK A01 T10201046  RH  082%=      5-min Rain = 0
KOD1 090758Z 31005KT M02/M05 A3033 RMK A01 T10201046  RH  082%=      5-min Rain = 0
KOD1 090759Z 31005KT M02/M05 A3033 RMK A01 T10201046  RH  083%=      5-min Rain = 0
KOD1 090800Z 31005KT M02/M05 A3033 RMK A01 T10201046  RH  083%=      5-min Rain = 0
KOD1 090801Z 32005KT M02/M05 A3033 RMK A01 T10211046  RH  083%=      5-min Rain = 0
KOD1 090802Z 32005KT M02/M05 A3033 RMK A01 T10211047  RH  083%=      5-min Rain = 0
KOD1 090803Z 31005KT M02/M05 A3033 RMK A01 T10211047  RH  083%=      5-min Rain = 0
KOD1 090804Z 32005KT M02/M05 A3033 RMK A01 T10211047  RH  083%=      5-min Rain = 0
KOD1 090805Z 31005KT M02/M05 A3033 RMK A01 T10211047  RH  083%=      5-min Rain = 0
KOD1 090806Z 32006KT M02/M05 A3033 RMK A01 T10221047  RH  083%=      5-min Rain = 0
KOD1 090807Z 31006KT M02/M05 A3033 RMK A01 T10221048  RH  082%=      5-min Rain = 0
KOD1 090808Z 32006KT M02/M05 A3033 RMK A01 T10211048  RH  082%=      5-min Rain = 0
KOD1 090809Z 31006KT M02/M05 A3033 RMK A01 T10211048  RH  082%=      5-min Rain = 0
KOD1 090810Z 31006KT M02/M05 A3033 RMK A01 T10211048  RH  082%=      5-min Rain = 0
KOD1 090811Z 31006KT M02/M05 A3033 RMK A01 T10221048  RH  082%=      5-min Rain = 0
KOD1 090812Z 31006KT M02/M05 A3033 RMK A01 T10221048  RH  082%=      5-min Rain = 0
KOD1 090813Z 31006KT M02/M05 A3033 RMK A01 T10221048  RH  082%=      5-min Rain = 0
KOD1 090814Z 31007KT M02/M05 A3033 RMK A01 T10221048  RH  082%=      5-min Rain = 0
KOD1 090815Z 31007KT M02/M05 A3033 RMK A01 T10231048  RH  082%=      5-min Rain = 0
KOD1 090816Z 31007KT M02/M05 A3033 RMK A01 T10231049  RH  082%=      5-min Rain = 0
KOD1 090817Z 31006KT M02/M05 A3033 RMK A01 T10231049  RH  082%=      5-min Rain = 0
KOD1 090818Z 31006KT M02/M05 A3033 RMK A01 T10231049  RH  082%=      5-min Rain = 0
KOD1 090819Z 31007KT M02/M05 A3034 RMK A01 T10221049  RH  082%=      5-min Rain = 0
KOD1 090820Z 31006KT M02/M05 A3034 RMK A01 T10221049  RH  082%=      5-min Rain = 0
KOD1 090821Z 31006KT M02/M05 A3034 RMK A01 T10221049  RH  082%=      5-min Rain = 0
KOD1 090822Z 31007KT M02/M05 A3034 RMK A01 T10221050  RH  082%=      5-min Rain = 0
KOD1 090823Z 31007KT M02/M05 A3034 RMK A01 T10221050  RH  081%=      5-min Rain = 0
KOD1 090824Z 31007KT M02/M05 A3034 RMK A01 T10221050  RH  081%=      5-min Rain = 0
KOD1 090825Z 31006KT M02/M05 A3034 RMK A01 T10211050  RH  081%=      5-min Rain = 0
KOD1 090826Z 31006KT M02/M05 A3034 RMK A01 T10211050  RH  081%=      5-min Rain = 0
KOD1 090827Z 31007KT M02/M05 A3034 RMK A01 T10211050  RH  080%=      5-min Rain = 0
KOD1 090828Z 31006KT M02/M05 A3034 RMK A01 T10211050  RH  080%=      5-min Rain = 0
KOD1 090829Z 31006KT M02/M05 A3034 RMK A01 T10211050  RH  080%=      5-min Rain = 0
KOD1 090830Z 31007KT M02/M05 A3034 RMK A01 T10201050  RH  080%=      5-min Rain = 0
KOD1 090831Z 31007KT M02/M05 A3034 RMK A01 T10201051  RH  080%=      5-min Rain = 0
KOD1 090832Z 31007KT M02/M05 A3034 RMK A01 T10201051  RH  080%=      5-min Rain = 0
KOD1 090833Z 31007KT M02/M05 A3034 RMK A01 T10201051  RH  079%=      5-min Rain = 0
KOD1 090834Z 31006KT M02/M05 A3034 RMK A01 T10201051  RH  079%=      5-min Rain = 0
KOD1 090835Z 31006KT M02/M05 A3034 RMK A01 T10191051  RH  079%=      5-min Rain = 0
KOD1 090836Z 31006KT M02/M05 A3034 RMK A01 T10191052  RH  079%=      5-min Rain = 0
KOD1 090837Z 31006KT M02/M05 A3034 RMK A01 T10191052  RH  079%=      5-min Rain = 0
KOD1 090838Z 31006KT M02/M05 A3034 RMK A01 T10191052  RH  078%=      5-min Rain = 0
KOD1 090839Z 31006KT M02/M05 A3034 RMK A01 T10191052  RH  079%=      5-min Rain = 0
KOD1 090840Z 31005KT M02/M05 A3034 RMK A01 T10191052  RH  079%=      5-min Rain = 0
KOD1 090841Z 31005KT M02/M05 A3034 RMK A01 T10201052  RH  079%=      5-min Rain = 0
KOD1 090842Z 31005KT M02/M05 A3034 RMK A01 T10201051  RH  079%=      5-min Rain = 0
KOD1 090843Z 31005KT M02/M05 A3034 RMK A01 T10201051  RH  079%=      5-min Rain = 0
KOD1 090844Z 31005KT M02/M05 A3034 RMK A01 T10201051  RH  079%=      5-min Rain = 0
KOD1 090845Z 31005KT M02/M05 A3034 RMK A01 T10211051  RH  079%=      5-min Rain = 0
KOD1 090846Z 31005KT M02/M05 A3034 RMK A01 T10211052  RH  080%=      5-min Rain = 0
KOD1 090847Z 31005KT M02/M05 A3034 RMK A01 T10211052  RH  080%=      5-min Rain = 0
KOD1 090848Z 31005KT M02/M05 A3034 RMK A01 T10221052  RH  080%=      5-min Rain = 0
KOD1 090849Z 31005KT M02/M05 A3034 RMK A01 T10221052  RH  080%=      5-min Rain = 0
KOD1 090850Z 31005KT M02/M05 A3034 RMK A01 T10221052  RH  080%=      5-min Rain = 0
KOD1 090851Z 31005KT M02/M05 A3034 RMK A01 T10221052  RH  080%=      5-min Rain = 0
KOD1 090852Z 31005KT M02/M05 A3034 RMK A01 T10231053  RH  080%=      5-min Rain = 0
KOD1 090853Z 31005KT M02/M05 A3034 RMK A01 T10231053  RH  080%=      5-min Rain = 0
KOD1 090854Z 31005KT M02/M05 A3034 RMK A01 T10231053  RH  080%=      5-min Rain = 0
KOD1 090855Z 30006KT M02/M05 A3034 RMK A01 T10241054  RH  080%=      5-min Rain = 0
KOD1 090856Z 30006KT M02/M05 A3034 RMK A01 T10241054  RH  080%=      5-min Rain = 0
KOD1 090857Z 31005KT M02/M05 A3034 RMK A01 T10241054  RH  080%=      5-min Rain = 0
KOD1 090858Z 31005KT M02/M05 A3034 RMK A01 T10241054  RH  080%=      5-min Rain = 0
KOD1 090859Z 31005KT M03/M05 A3034 RMK A01 T10251054  RH  080%=      5-min Rain = 0
KOD1 090900Z 31005KT M03/M05 A3034 RMK A01 T10251054  RH  080%=      5-min Rain = 0
KOD1 090901Z 31005KT M03/M05 A3034 RMK A01 T10251054  RH  080%=      5-min Rain = 0
KOD1 090902Z 31005KT M03/M06 A3034 RMK A01 T10261055  RH  081%=      5-min Rain = 0
KOD1 090903Z 32005KT M03/M06 A3034 RMK A01 T10261055  RH  081%=      5-min Rain = 0
KOD1 090904Z 32006KT M03/M06 A3034 RMK A01 T10261055  RH  081%=      5-min Rain = 0
KOD1 090905Z 32006KT M03/M06 A3034 RMK A01 T10261055  RH  081%=      5-min Rain = 0
KOD1 090906Z 32006KT M03/M06 A3034 RMK A01 T10261055  RH  081%=      5-min Rain = 0
KOD1 090907Z 31006KT M03/M06 A3034 RMK A01 T10261055  RH  080%=      5-min Rain = 0
KOD1 090908Z 31005KT M03/M06 A3034 RMK A01 T10261055  RH  081%=      5-min Rain = 0
KOD1 090909Z 31005KT M03/M06 A3034 RMK A01 T10261055  RH  080%=      5-min Rain = 0
KOD1 090910Z 31005KT M03/M06 A3034 RMK A01 T10261055  RH  081%=      5-min Rain = 0
KOD1 090911Z 31005KT M03/M06 A3034 RMK A01 T10261055  RH  081%=      5-min Rain = 0
KOD1 090912Z 31005KT M03/M06 A3034 RMK A01 T10271055  RH  081%=      5-min Rain = 0
KOD1 090913Z 31005KT M03/M06 A3034 RMK A01 T10271055  RH  081%=      5-min Rain = 0
KOD1 090914Z 31005KT M03/M06 A3034 RMK A01 T10271055  RH  081%=      5-min Rain = 0
KOD1 090915Z 31005KT M03/M05 A3034 RMK A01 T10271054  RH  081%=      5-min Rain = 0
KOD1 090916Z 31005KT M03/M05 A3034 RMK A01 T10271054  RH  081%=      5-min Rain = 0
KOD1 090917Z 30006KT M03/M05 A3034 RMK A01 T10271054  RH  081%=      5-min Rain = 0
KOD1 090918Z 30006KT M03/M05 A3034 RMK A01 T10271054  RH  081%=      5-min Rain = 0
KOD1 090919Z 30006KT M03/M05 A3034 RMK A01 T10271054  RH  081%=      5-min Rain = 0
KOD1 090920Z 30006KT M03/M05 A3034 RMK A01 T10261054  RH  081%=      5-min Rain = 0
KOD1 090921Z 30005KT M03/M05 A3034 RMK A01 T10261054  RH  081%=      5-min Rain = 0
KOD1 090922Z 30005KT M03/M05 A3034 RMK A01 T10261054  RH  081%=      5-min Rain = 0
KOD1 090923Z 30005KT M03/M05 A3034 RMK A01 T10261054  RH  081%=      5-min Rain = 0
KOD1 090924Z 30005KT M03/M05 A3034 RMK A01 T10261054  RH  081%=      5-min Rain = 0
KOD1 090925Z 30005KT M03/M05 A3034 RMK A01 T10261054  RH  081%=      5-min Rain = 0
KOD1 090926Z 30005KT M03/M05 A3034 RMK A01 T10261054  RH  081%=      5-min Rain = 0
KOD1 090927Z 29005KT M03/M05 A3034 RMK A01 T10261054  RH  081%=      5-min Rain = 0
KOD1 090928Z 29005KT M03/M05 A3034 RMK A01 T10261054  RH  081%=      5-min Rain = 0
KOD1 090929Z 30005KT M03/M05 A3034 RMK A01 T10261054  RH  081%=      5-min Rain = 0
KOD1 090930Z 30005KT M03/M05 A3034 RMK A01 T10261053  RH  081%=      5-min Rain = 0
KOD1 090931Z 30005KT M03/M05 A3034 RMK A01 T10251053  RH  081%=      5-min Rain = 0
KOD1 090932Z 30005KT M03/M05 A3034 RMK A01 T10251053  RH  081%=      5-min Rain = 0
KOD1 090933Z 30005KT M03/M05 A3034 RMK A01 T10251053  RH  081%=      5-min Rain = 0
KOD1 090934Z 30005KT M03/M05 A3034 RMK A01 T10251053  RH  081%=      5-min Rain = 0
KOD1 090935Z 31005KT M02/M05 A3034 RMK A01 T10241053  RH  081%=      5-min Rain = 0
KOD1 090936Z 31004KT M02/M05 A3034 RMK A01 T10241053  RH  081%=      5-min Rain = 0
KOD1 090937Z 31005KT M02/M05 A3034 RMK A01 T10241053  RH  080%=      5-min Rain = 0
KOD1 090938Z 31004KT M02/M05 A3034 RMK A01 T10241053  RH  080%=      5-min Rain = 0
KOD1 090939Z 31005KT M02/M05 A3034 RMK A01 T10231053  RH  080%=      5-min Rain = 0
KOD1 090940Z 31006KT M02/M05 A3034 RMK A01 T10231053  RH  080%=      5-min Rain = 0
KOD1 090941Z 31005KT M02/M05 A3034 RMK A01 T10231054  RH  080%=      5-min Rain = 0
KOD1 090942Z 31005KT M02/M05 A3034 RMK A01 T10231054  RH  079%=      5-min Rain = 0
KOD1 090943Z 31005KT M02/M05 A3034 RMK A01 T10231054  RH  079%=      5-min Rain = 0
KOD1 090944Z 31005KT M02/M05 A3034 RMK A01 T10231054  RH  079%=      5-min Rain = 0
KOD1 090945Z 31005KT M02/M05 A3034 RMK A01 T10221054  RH  079%=      5-min Rain = 0
KOD1 090946Z 32005KT M02/M05 A3034 RMK A01 T10221054  RH  079%=      5-min Rain = 0
KOD1 090947Z 32005KT M02/M05 A3034 RMK A01 T10221054  RH  079%=      5-min Rain = 0
KOD1 090948Z 32005KT M02/M06 A3033 RMK A01 T10221055  RH  078%=      5-min Rain = 0
KOD1 090949Z 32005KT M02/M06 A3033 RMK A01 T10221056  RH  078%=      5-min Rain = 0
KOD1 090950Z 33005KT M02/M06 A3033 RMK A01 T10221055  RH  078%=      5-min Rain = 0
KOD1 090951Z 32007KT M02/M06 A3033 RMK A01 T10221056  RH  078%=      5-min Rain = 0
KOD1 090952Z 32006KT M02/M06 A3033 RMK A01 T10221056  RH  077%=      5-min Rain = 0
KOD1 090953Z 32005KT M02/M06 A3033 RMK A01 T10221056  RH  077%=      5-min Rain = 0
KOD1 090954Z 32005KT M02/M06 A3033 RMK A01 T10221055  RH  078%=      5-min Rain = 0
KOD1 090955Z 32005KT M02/M06 A3033 RMK A01 T10221055  RH  078%=      5-min Rain = 0
KOD1 090956Z 32007KT M02/M06 A3033 RMK A01 T10221055  RH  078%=      5-min Rain = 0
KOD1 090957Z 32006KT M02/M06 A3033 RMK A01 T10221056  RH  077%=      5-min Rain = 0
KOD1 090958Z 32006KT M02/M06 A3033 RMK A01 T10211057  RH  077%=      5-min Rain = 0
KOD1 090959Z 33005KT M02/M06 A3033 RMK A01 T10211057  RH  077%=      5-min Rain = 0
KOD1 091000Z 33005KT M02/M06 A3033 RMK A01 T10211056  RH  077%=      5-min Rain = 0
KOD1 091001Z 33005KT M02/M06 A3033 RMK A01 T10211056  RH  077%=      5-min Rain = 0
KOD1 091002Z 33006KT M02/M06 A3033 RMK A01 T10211056  RH  077%=      5-min Rain = 0
KOD1 091003Z 33005KT M02/M06 A3033 RMK A01 T10211055  RH  077%=      5-min Rain = 0
KOD1 091004Z 33007KT M02/M06 A3033 RMK A01 T10211056  RH  076%=      5-min Rain = 0
KOD1 091005Z 33006KT M02/M06 A3033 RMK A01 T10211057  RH  076%=      5-min Rain = 0
KOD1 091006Z 32007KT M02/M06 A3034 RMK A01 T10211057  RH  076%=      5-min Rain = 0
KOD1 091007Z 33006KT M02/M06 A3034 RMK A01 T10201058  RH  076%=      5-min Rain = 0
KOD1 091008Z 33007KT M02/M06 A3034 RMK A01 T10201057  RH  076%=      5-min Rain = 0
KOD1 091009Z 32007KT M02/M06 A3034 RMK A01 T10201056  RH  076%=      5-min Rain = 0
KOD1 091010Z 33006KT M02/M06 A3034 RMK A01 T10201057  RH  076%=      5-min Rain = 0
KOD1 091011Z 33006KT M02/M06 A3034 RMK A01 T10201056  RH  076%=      5-min Rain = 0
KOD1 091012Z 33007KT M02/M06 A3033 RMK A01 T10201057  RH  076%=      5-min Rain = 0
KOD1 091013Z 33007KT M02/M06 A3033 RMK A01 T10211057  RH  076%=      5-min Rain = 0
KOD1 091014Z 33006KT M02/M06 A3033 RMK A01 T10211057  RH  076%=      5-min Rain = 0
KOD1 091015Z 33007KT M02/M06 A3033 RMK A01 T10211056  RH  077%=      5-min Rain = 0
KOD1 091016Z 33007KT M02/M06 A3034 RMK A01 T10211057  RH  076%=      5-min Rain = 0
KOD1 091017Z 33007KT M02/M06 A3034 RMK A01 T10211057  RH  076%=      5-min Rain = 0
KOD1 091018Z 33008KT M02/M06 A3034 RMK A01 T10211057  RH  076%=      5-min Rain = 0
KOD1 091019Z 33007KT M02/M06 A3034 RMK A01 T10211057  RH  077%=      5-min Rain = 0
KOD1 091020Z 33008KT M02/M06 A3034 RMK A01 T10211057  RH  077%=      5-min Rain = 0
KOD1 091021Z 33007KT M02/M06 A3034 RMK A01 T10221057  RH  077%=      5-min Rain = 0
KOD1 091022Z 33007KT M02/M06 A3034 RMK A01 T10221057  RH  077%=      5-min Rain = 0
KOD1 091023Z 34007KT M02/M06 A3034 RMK A01 T10221058  RH  076%=      5-min Rain = 0
KOD1 091024Z 34007KT M02/M06 A3034 RMK A01 T10221058  RH  076%=      5-min Rain = 0
KOD1 091025Z 34008KT M02/M06 A3034 RMK A01 T10221059  RH  076%=      5-min Rain = 0
KOD1 091026Z 34008KT M02/M06 A3034 RMK A01 T10221059  RH  076%=      5-min Rain = 0
KOD1 091027Z 33007KT M02/M06 A3034 RMK A01 T10231059  RH  076%=      5-min Rain = 0
KOD1 091028Z 33008KT M02/M06 A3034 RMK A01 T10231059  RH  076%=      5-min Rain = 0
KOD1 091029Z 33007KT M02/M06 A3034 RMK A01 T10231059  RH  077%=      5-min Rain = 0
KOD1 091030Z 33008KT M02/M06 A3034 RMK A01 T10241060  RH  076%=      5-min Rain = 0
KOD1 091031Z 34006KT M02/M06 A3034 RMK A01 T10241060  RH  077%=      5-min Rain = 0
KOD1 091032Z 33006KT M03/M06 A3034 RMK A01 T10251059  RH  077%=      5-min Rain = 0
KOD1 091033Z 33006KT M03/M06 A3034 RMK A01 T10251060  RH  077%=      5-min Rain = 0
KOD1 091034Z 33006KT M03/M06 A3034 RMK A01 T10261059  RH  078%=      5-min Rain = 0
KOD1 091035Z 33006KT M03/M06 A3034 RMK A01 T10261060  RH  077%=      5-min Rain = 0
KOD1 091036Z 33006KT M03/M06 A3034 RMK A01 T10261060  RH  078%=      5-min Rain = 0
KOD1 091037Z 33006KT M03/M06 A3034 RMK A01 T10261060  RH  078%=      5-min Rain = 0
KOD1 091038Z 34006KT M03/M06 A3034 RMK A01 T10271060  RH  078%=      5-min Rain = 0
KOD1 091039Z 33006KT M03/M06 A3034 RMK A01 T10271060  RH  078%=      5-min Rain = 0
KOD1 091040Z 33005KT M03/M06 A3034 RMK A01 T10271060  RH  078%=      5-min Rain = 0
KOD1 091041Z 33006KT M03/M06 A3034 RMK A01 T10281060  RH  079%=      5-min Rain = 0
KOD1 091042Z 33006KT M03/M06 A3034 RMK A01 T10281060  RH  078%=      5-min Rain = 0
KOD1 091043Z 33006KT M03/M06 A3034 RMK A01 T10281060  RH  079%=      5-min Rain = 0
KOD1 091044Z 32005KT M03/M06 A3034 RMK A01 T10291061  RH  079%=      5-min Rain = 0
KOD1 091045Z 32006KT M03/M06 A3034 RMK A01 T10291061  RH  079%=      5-min Rain = 0
KOD1 091046Z 32005KT M03/M06 A3034 RMK A01 T10301061  RH  079%=      5-min Rain = 0
KOD1 091047Z 33005KT M03/M06 A3034 RMK A01 T10311061  RH  079%=      5-min Rain = 0
KOD1 091048Z 33005KT M03/M06 A3034 RMK A01 T10311061  RH  080%=      5-min Rain = 0
KOD1 091049Z 33005KT M03/M06 A3034 RMK A01 T10321061  RH  080%=      5-min Rain = 0
KOD1 091050Z 33005KT M03/M06 A3034 RMK A01 T10321061  RH  080%=      5-min Rain = 0
KOD1 091051Z 34005KT M03/M06 A3034 RMK A01 T10331062  RH  080%=      5-min Rain = 0
KOD1 091052Z 33005KT M03/M06 A3034 RMK A01 T10331062  RH  081%=      5-min Rain = 0
KOD1 091053Z 33005KT M03/M06 A3034 RMK A01 T10331062  RH  081%=      5-min Rain = 0
KOD1 091054Z 32005KT M03/M06 A3034 RMK A01 T10341062  RH  081%=      5-min Rain = 0
KOD1 091055Z 31006KT M03/M06 A3034 RMK A01 T10341061  RH  081%=      5-min Rain = 0
KOD1 091056Z 31005KT M03/M06 A3034 RMK A01 T10341061  RH  082%=      5-min Rain = 0
KOD1 091057Z 31005KT M03/M06 A3034 RMK A01 T10341061  RH  082%=      5-min Rain = 0
KOD1 091058Z 31005KT M03/M06 A3034 RMK A01 T10341061  RH  082%=      5-min Rain = 0
KOD1 091059Z 32005KT M04/M06 A3034 RMK A01 T10351061  RH  082%=      5-min Rain = 0
KOD1 091100Z 32005KT M04/M06 A3034 RMK A01 T10351061  RH  082%=      5-min Rain = 0
KOD1 091101Z 33005KT M04/M06 A3034 RMK A01 T10351061  RH  082%=      5-min Rain = 0
KOD1 091102Z 33005KT M04/M06 A3034 RMK A01 T10351061  RH  082%=      5-min Rain = 0
KOD1 091103Z 32006KT M04/M06 A3034 RMK A01 T10351061  RH  082%=      5-min Rain = 0
KOD1 091104Z 33006KT M04/M06 A3034 RMK A01 T10351061  RH  082%=      5-min Rain = 0
KOD1 091105Z 32006KT M04/M06 A3034 RMK A01 T10351061  RH  082%=      5-min Rain = 0
KOD1 091106Z 32006KT M04/M06 A3034 RMK A01 T10351061  RH  082%=      5-min Rain = 0
KOD1 091107Z 32005KT M04/M06 A3034 RMK A01 T10361061  RH  082%=      5-min Rain = 0
KOD1 091108Z 32005KT M04/M06 A3034 RMK A01 T10361061  RH  083%=      5-min Rain = 0
KOD1 091109Z 32004KT M04/M06 A3034 RMK A01 T10361062  RH  083%=      5-min Rain = 0
KOD1 091110Z 32005KT M04/M06 A3034 RMK A01 T10361062  RH  083%=      5-min Rain = 0
KOD1 091111Z 31005KT M04/M06 A3034 RMK A01 T10371062  RH  083%=      5-min Rain = 0
KOD1 091112Z 31005KT M04/M06 A3034 RMK A01 T10371063  RH  083%=      5-min Rain = 0
KOD1 091113Z 32005KT M04/M06 A3034 RMK A01 T10381063  RH  083%=      5-min Rain = 0
KOD1 091114Z 32005KT M04/M06 A3034 RMK A01 T10381063  RH  083%=      5-min Rain = 0
KOD1 091115Z 32005KT M04/M06 A3034 RMK A01 T10391064  RH  083%=      5-min Rain = 0
KOD1 091116Z 32005KT M04/M06 A3034 RMK A01 T10401064  RH  083%=      5-min Rain = 0
KOD1 091117Z 32005KT M04/M06 A3034 RMK A01 T10401064  RH  083%=      5-min Rain = 0
KOD1 091118Z 32006KT M04/M06 A3034 RMK A01 T10411064  RH  084%=      5-min Rain = 0
KOD1 091119Z 32005KT M04/M07 A3034 RMK A01 T10411065  RH  084%=      5-min Rain = 0
KOD1 091120Z 32005KT M04/M07 A3034 RMK A01 T10421065  RH  084%=      5-min Rain = 0
KOD1 091121Z 32005KT M04/M07 A3034 RMK A01 T10421065  RH  084%=      5-min Rain = 0
KOD1 091122Z 32005KT M04/M07 A3034 RMK A01 T10431065  RH  084%=      5-min Rain = 0
KOD1 091123Z 31005KT M04/M07 A3034 RMK A01 T10431065  RH  084%=      5-min Rain = 0
KOD1 091124Z 30005KT M04/M07 A3034 RMK A01 T10431066  RH  084%=      5-min Rain = 0
KOD1 091125Z 30005KT M04/M07 A3034 RMK A01 T10441066  RH  084%=      5-min Rain = 0
KOD1 091126Z 30005KT M05/M07 A3034 RMK A01 T10451067  RH  085%=      5-min Rain = 0
KOD1 091127Z 30004KT M05/M07 A3034 RMK A01 T10461067  RH  085%=      5-min Rain = 0
KOD1 091128Z 31005KT M05/M07 A3034 RMK A01 T10461068  RH  085%=      5-min Rain = 0
KOD1 091129Z 31005KT M05/M07 A3034 RMK A01 T10471068  RH  085%=      5-min Rain = 0
KOD1 091130Z 31005KT M05/M07 A3035 RMK A01 T10471068  RH  086%=      5-min Rain = 0
KOD1 091131Z 32005KT M05/M07 A3035 RMK A01 T10481068  RH  086%=      5-min Rain = 0
KOD1 091132Z 32006KT M05/M07 A3035 RMK A01 T10481068  RH  086%=      5-min Rain = 0
KOD1 091133Z 32006KT M05/M07 A3035 RMK A01 T10491068  RH  086%=      5-min Rain = 0
KOD1 091134Z 31006KT M05/M07 A3035 RMK A01 T10491068  RH  086%=      5-min Rain = 0
KOD1 091135Z 31006KT M05/M07 A3035 RMK A01 T10491068  RH  087%=      5-min Rain = 0
KOD1 091136Z 31005KT M05/M07 A3035 RMK A01 T10491068  RH  087%=      5-min Rain = 0
KOD1 091137Z 31005KT M05/M07 A3035 RMK A01 T10491068  RH  087%=      5-min Rain = 0
KOD1 091138Z 31005KT M05/M07 A3035 RMK A01 T10491068  RH  087%=      5-min Rain = 0
KOD1 091139Z 31005KT M05/M07 A3035 RMK A01 T10491068  RH  087%=      5-min Rain = 0
KOD1 091140Z 31005KT M05/M07 A3035 RMK A01 T10491068  RH  087%=      5-min Rain = 0
KOD1 091141Z 31004KT M05/M07 A3035 RMK A01 T10501068  RH  087%=      5-min Rain = 0
KOD1 091142Z 31004KT M05/M07 A3035 RMK A01 T10501069  RH  087%=      5-min Rain = 0
KOD1 091143Z 32004KT M05/M07 A3035 RMK A01 T10501069  RH  087%=      5-min Rain = 0
KOD1 091144Z 32004KT M05/M07 A3035 RMK A01 T10501069  RH  087%=      5-min Rain = 0
KOD1 091145Z 33004KT M05/M07 A3035 RMK A01 T10501069  RH  087%=      5-min Rain = 0
KOD1 091146Z 33004KT M05/M07 A3035 RMK A01 T10501068  RH  087%=      5-min Rain = 0
KOD1 091147Z 33004KT M05/M07 A3035 RMK A01 T10501068  RH  087%=      5-min Rain = 0
KOD1 091148Z 32004KT M05/M07 A3035 RMK A01 T10491067  RH  088%=      5-min Rain = 0
KOD1 091149Z 32005KT M05/M07 A3035 RMK A01 T10491066  RH  088%=      5-min Rain = 0
KOD1 091150Z 32005KT M05/M07 A3035 RMK A01 T10481065  RH  088%=      5-min Rain = 0
KOD1 091151Z 32005KT M05/M07 A3035 RMK A01 T10471065  RH  087%=      5-min Rain = 0
KOD1 091152Z 32005KT M05/M06 A3035 RMK A01 T10461064  RH  087%=      5-min Rain = 0
KOD1 091153Z 32006KT M05/M06 A3035 RMK A01 T10451064  RH  087%=      5-min Rain = 0
KOD1 091154Z 32005KT M05/M06 A3035 RMK A01 T10451064  RH  087%=      5-min Rain = 0
KOD1 091155Z 32006KT M04/M06 A3035 RMK A01 T10441064  RH  086%=      5-min Rain = 0
KOD1 091156Z 32006KT M04/M06 A3035 RMK A01 T10441064  RH  086%=      5-min Rain = 0
KOD1 091157Z 32006KT M04/M06 A3035 RMK A01 T10441064  RH  086%=      5-min Rain = 0
KOD1 091158Z 32005KT M04/M07 A3035 RMK A01 T10441065  RH  085%=      5-min Rain = 0
KOD1 091159Z 32006KT M04/M07 A3035 RMK A01 T10441065  RH  085%=      5-min Rain = 0
KOD1 091200Z 32006KT M05/M07 A3035 RMK A01 T10451066  RH  085%=      5-min Rain = 0
KOD1 091201Z 32006KT M05/M07 A3035 RMK A01 T10451066  RH  086%=      5-min Rain = 0
KOD1 091202Z 32007KT M05/M07 A3035 RMK A01 T10451066  RH  086%=      5-min Rain = 0
KOD1 091203Z 32006KT M05/M07 A3035 RMK A01 T10451066  RH  085%=      5-min Rain = 0
KOD1 091204Z 32006KT M05/M07 A3035 RMK A01 T10461067  RH  085%=      5-min Rain = 0
KOD1 091205Z 32006KT M05/M07 A3035 RMK A01 T10461067  RH  086%=      5-min Rain = 0
KOD1 091206Z 32006KT M05/M07 A3035 RMK A01 T10471067  RH  086%=      5-min Rain = 0
KOD1 091207Z 32006KT M05/M07 A3035 RMK A01 T10471068  RH  086%=      5-min Rain = 0
KOD1 091208Z 32006KT M05/M07 A3035 RMK A01 T10481068  RH  086%=      5-min Rain = 0
KOD1 091209Z 32006KT M05/M07 A3035 RMK A01 T10481068  RH  086%=      5-min Rain = 0
KOD1 091210Z 32006KT M05/M07 A3035 RMK A01 T10481067  RH  086%=      5-min Rain = 0
KOD1 091211Z 32006KT M05/M07 A3035 RMK A01 T10481067  RH  086%=      5-min Rain = 0
KOD1 091212Z 32006KT M05/M07 A3035 RMK A01 T10481067  RH  086%=      5-min Rain = 0
KOD1 091213Z 32006KT M05/M07 A3035 RMK A01 T10471066  RH  086%=      5-min Rain = 0
KOD1 091214Z 32006KT M05/M07 A3035 RMK A01 T10461066  RH  086%=      5-min Rain = 0
KOD1 091215Z 32006KT M05/M07 A3035 RMK A01 T10461067  RH  086%=      5-min Rain = 0
KOD1 091216Z 32006KT M05/M07 A3036 RMK A01 T10461067  RH  086%=      5-min Rain = 0
KOD1 091217Z 32006KT M05/M07 A3036 RMK A01 T10461067  RH  086%=      5-min Rain = 0
KOD1 091218Z 32006KT M05/M07 A3036 RMK A01 T10461067  RH  085%=      5-min Rain = 0
KOD1 091219Z 32006KT M05/M07 A3036 RMK A01 T10461067  RH  085%=      5-min Rain = 0
KOD1 091220Z 32006KT M05/M07 A3036 RMK A01 T10461067  RH  086%=      5-min Rain = 0
KOD1 091221Z 32006KT M05/M07 A3036 RMK A01 T10461067  RH  085%=      5-min Rain = 0
KOD1 091222Z 32006KT M05/M07 A3036 RMK A01 T10461067  RH  085%=      5-min Rain = 0
KOD1 091223Z 32006KT M05/M07 A3036 RMK A01 T10461067  RH  085%=      5-min Rain = 0
KOD1 091224Z 32006KT M05/M07 A3036 RMK A01 T10471068  RH  085%=      5-min Rain = 0
KOD1 091225Z 32006KT M05/M07 A3036 RMK A01 T10471068  RH  085%=      5-min Rain = 0
KOD1 091226Z 32006KT M05/M07 A3036 RMK A01 T10481068  RH  085%=      5-min Rain = 0
KOD1 091227Z 32006KT M05/M07 A3036 RMK A01 T10481068  RH  086%=      5-min Rain = 0
KOD1 091228Z 32007KT M05/M07 A3036 RMK A01 T10481068  RH  086%=      5-min Rain = 0
KOD1 091229Z 32007KT M05/M07 A3036 RMK A01 T10481067  RH  086%=      5-min Rain = 0
KOD1 091230Z 32006KT M05/M07 A3036 RMK A01 T10471067  RH  086%=      5-min Rain = 0
KOD1 091231Z 32007KT M05/M07 A3036 RMK A01 T10471067  RH  086%=      5-min Rain = 0
KOD1 091232Z 32007KT M05/M07 A3036 RMK A01 T10461067  RH  086%=      5-min Rain = 0
KOD1 091233Z 32007KT M05/M07 A3036 RMK A01 T10461067  RH  086%=      5-min Rain = 0
KOD1 091234Z 32007KT M05/M07 A3036 RMK A01 T10451067  RH  085%=      5-min Rain = 0
KOD1 091235Z 32007KT M05/M07 A3036 RMK A01 T10461067  RH  085%=      5-min Rain = 0
KOD1 091236Z 32007KT M05/M07 A3036 RMK A01 T10461068  RH  085%=      5-min Rain = 0
KOD1 091237Z 32007KT M05/M07 A3036 RMK A01 T10461068  RH  085%=      5-min Rain = 0
KOD1 091238Z 32007KT M05/M07 A3036 RMK A01 T10471068  RH  085%=      5-min Rain = 0
KOD1 091239Z 32007KT M05/M07 A3036 RMK A01 T10471068  RH  085%=      5-min Rain = 0
KOD1 091240Z 32008KT M05/M07 A3036 RMK A01 T10471068  RH  086%=      5-min Rain = 0
KOD1 091241Z 33008KT M05/M07 A3036 RMK A01 T10471067  RH  086%=      5-min Rain = 0
KOD1 091242Z 33008KT M05/M07 A3036 RMK A01 T10461067  RH  085%=      5-min Rain = 0
KOD1 091243Z 33008KT M05/M07 A3036 RMK A01 T10461067  RH  085%=      5-min Rain = 0
KOD1 091244Z 34008KT M05/M07 A3036 RMK A01 T10451067  RH  085%=      5-min Rain = 0
KOD1 091245Z 34009KT M05/M07 A3036 RMK A01 T10451067  RH  085%=      5-min Rain = 0
KOD1 091246Z 33009KT M04/M07 A3036 RMK A01 T10441067  RH  085%=      5-min Rain = 0
KOD1 091247Z 33009KT M04/M07 A3036 RMK A01 T10441067  RH  084%=      5-min Rain = 0
KOD1 091248Z 33009KT M04/M07 A3036 RMK A01 T10441066  RH  084%=      5-min Rain = 0
KOD1 091249Z 34010KT M04/M07 A3036 RMK A01 T10431067  RH  084%=      5-min Rain = 0
KOD1 091250Z 33009KT M04/M07 A3036 RMK A01 T10431066  RH  084%=      5-min Rain = 0
KOD1 091251Z 34009KT M04/M07 A3036 RMK A01 T10431066  RH  083%=      5-min Rain = 0
KOD1 091252Z 34009KT M04/M07 A3036 RMK A01 T10421067  RH  083%=      5-min Rain = 0
KOD1 091253Z 34008KT M04/M07 A3036 RMK A01 T10421067  RH  083%=      5-min Rain = 0
KOD1 091254Z 34009KT M04/M07 A3036 RMK A01 T10421067  RH  083%=      5-min Rain = 0
KOD1 091255Z 34009KT M04/M07 A3036 RMK A01 T10421067  RH  083%=      5-min Rain = 0
KOD1 091256Z 34008KT M04/M07 A3036 RMK A01 T10411067  RH  082%=      5-min Rain = 0
KOD1 091257Z 33009KT M04/M07 A3036 RMK A01 T10411067  RH  082%=      5-min Rain = 0
KOD1 091258Z 33008KT M04/M07 A3036 RMK A01 T10411067  RH  082%=      5-min Rain = 0
KOD1 091259Z 33008KT M04/M07 A3036 RMK A01 T10411067  RH  082%=      5-min Rain = 0
KOD1 091300Z 33007KT M04/M07 A3036 RMK A01 T10411067  RH  082%=      5-min Rain = 0
KOD1 091301Z 33007KT M04/M07 A3036 RMK A01 T10421068  RH  082%=      5-min Rain = 0
KOD1 091302Z 32007KT M04/M07 A3036 RMK A01 T10421068  RH  082%=      5-min Rain = 0
KOD1 091303Z 32007KT M04/M07 A3036 RMK A01 T10421068  RH  082%=      5-min Rain = 0
KOD1 091304Z 32006KT M04/M07 A3037 RMK A01 T10421068  RH  082%=      5-min Rain = 0
KOD1 091305Z 31005KT M04/M07 A3037 RMK A01 T10421068  RH  082%=      5-min Rain = 0
KOD1 091306Z 32006KT M04/M07 A3037 RMK A01 T10421068  RH  082%=      5-min Rain = 0
KOD1 091307Z 31006KT M04/M07 A3037 RMK A01 T10431068  RH  083%=      5-min Rain = 0
KOD1 091308Z 31005KT M04/M07 A3037 RMK A01 T10431068  RH  083%=      5-min Rain = 0
KOD1 091309Z 31005KT M04/M07 A3037 RMK A01 T10441068  RH  083%=      5-min Rain = 0
KOD1 091310Z 31006KT M04/M07 A3037 RMK A01 T10441069  RH  083%=      5-min Rain = 0
KOD1 091311Z 31005KT M04/M07 A3037 RMK A01 T10441069  RH  083%=      5-min Rain = 0
KOD1 091312Z 32005KT M05/M07 A3037 RMK A01 T10451069  RH  083%=      5-min Rain = 0
KOD1 091313Z 32005KT M05/M07 A3037 RMK A01 T10451070  RH  083%=      5-min Rain = 0
KOD1 091314Z 32006KT M05/M07 A3037 RMK A01 T10461070  RH  083%=      5-min Rain = 0
KOD1 091315Z 32006KT M05/M07 A3038 RMK A01 T10461070  RH  084%=      5-min Rain = 0
KOD1 091316Z 32007KT M05/M07 A3038 RMK A01 T10461069  RH  084%=      5-min Rain = 0
KOD1 091317Z 32007KT M05/M07 A3038 RMK A01 T10461069  RH  084%=      5-min Rain = 0
KOD1 091318Z 32007KT M05/M07 A3038 RMK A01 T10451069  RH  084%=      5-min Rain = 0
KOD1 091319Z 32007KT M05/M07 A3038 RMK A01 T10451069  RH  083%=      5-min Rain = 0
KOD1 091320Z 32007KT M05/M07 A3038 RMK A01 T10451069  RH  083%=      5-min Rain = 0
KOD1 091321Z 32007KT M04/M07 A3038 RMK A01 T10441069  RH  083%=      5-min Rain = 0
KOD1 091322Z 32007KT M04/M07 A3038 RMK A01 T10441069  RH  083%=      5-min Rain = 0
KOD1 091323Z 32007KT M04/M07 A3038 RMK A01 T10441069  RH  083%=      5-min Rain = 0
KOD1 091324Z 32006KT M04/M07 A3038 RMK A01 T10431069  RH  083%=      5-min Rain = 0
KOD1 091325Z 32006KT M04/M07 A3038 RMK A01 T10431069  RH  082%=      5-min Rain = 0
KOD1 091326Z 32006KT M04/M07 A3038 RMK A01 T10431069  RH  082%=      5-min Rain = 0
KOD1 091327Z 31006KT M04/M07 A3038 RMK A01 T10431069  RH  082%=      5-min Rain = 0
KOD1 091328Z 31006KT M04/M07 A3038 RMK A01 T10431069  RH  082%=      5-min Rain = 0
KOD1 091329Z 31006KT M04/M07 A3038 RMK A01 T10441069  RH  082%=      5-min Rain = 0
KOD1 091330Z 30006KT M04/M07 A3038 RMK A01 T10441069  RH  083%=      5-min Rain = 0
KOD1 091331Z 30006KT M05/M07 A3038 RMK A01 T10451069  RH  083%=      5-min Rain = 0
KOD1 091332Z 30006KT M05/M07 A3038 RMK A01 T10451070  RH  083%=      5-min Rain = 0
KOD1 091333Z 30006KT M05/M07 A3038 RMK A01 T10461070  RH  083%=      5-min Rain = 0
KOD1 091334Z 30006KT M05/M07 A3038 RMK A01 T10461070  RH  084%=      5-min Rain = 0
KOD1 091335Z 31007KT M05/M07 A3038 RMK A01 T10471070  RH  084%=      5-min Rain = 0
KOD1 091336Z 31007KT M05/M07 A3038 RMK A01 T10471070  RH  084%=      5-min Rain = 0
KOD1 091337Z 32007KT M05/M07 A3038 RMK A01 T10471070  RH  084%=      5-min Rain = 0
KOD1 091338Z 32007KT M05/M07 A3038 RMK A01 T10471070  RH  084%=      5-min Rain = 0
KOD1 091339Z 32008KT M05/M07 A3038 RMK A01 T10471070  RH  084%=      5-min Rain = 0
KOD1 091340Z 32008KT M05/M07 A3038 RMK A01 T10461069  RH  084%=      5-min Rain = 0
KOD1 091341Z 32008KT M05/M07 A3038 RMK A01 T10461069  RH  084%=      5-min Rain = 0
KOD1 091342Z 33009KT M05/M07 A3038 RMK A01 T10451069  RH  084%=      5-min Rain = 0
KOD1 091343Z 32008KT M04/M07 A3038 RMK A01 T10441069  RH  083%=      5-min Rain = 0
KOD1 091344Z 32008KT M04/M07 A3038 RMK A01 T10431068  RH  083%=      5-min Rain = 0
KOD1 091345Z 33008KT M04/M07 A3038 RMK A01 T10421068  RH  082%=      5-min Rain = 0
KOD1 091346Z 32007KT M04/M07 A3038 RMK A01 T10421068  RH  082%=      5-min Rain = 0
KOD1 091347Z 32007KT M04/M07 A3038 RMK A01 T10411068  RH  082%=      5-min Rain = 0
KOD1 091348Z 32006KT M04/M07 A3038 RMK A01 T10411068  RH  082%=      5-min Rain = 0
KOD1 091349Z 32005KT M04/M07 A3038 RMK A01 T10411068  RH  082%=      5-min Rain = 0
KOD1 091350Z 32006KT M04/M07 A3038 RMK A01 T10411068  RH  082%=      5-min Rain = 0
KOD1 091351Z 32006KT M04/M07 A3038 RMK A01 T10411068  RH  081%=      5-min Rain = 0
KOD1 091352Z 33006KT M04/M07 A3038 RMK A01 T10401068  RH  081%=      5-min Rain = 0
KOD1 091353Z 33006KT M04/M07 A3038 RMK A01 T10401067  RH  081%=      5-min Rain = 0
KOD1 091354Z 34006KT M04/M07 A3038 RMK A01 T10401068  RH  081%=      5-min Rain = 0
KOD1 091355Z 34005KT M04/M07 A3038 RMK A01 T10391068  RH  081%=      5-min Rain = 0
KOD1 091356Z 34006KT M04/M07 A3038 RMK A01 T10391067  RH  081%=      5-min Rain = 0
KOD1 091357Z 34006KT M04/M07 A3038 RMK A01 T10381067  RH  080%=      5-min Rain = 0
KOD1 091358Z 34006KT M04/M07 A3038 RMK A01 T10381067  RH  080%=      5-min Rain = 0
KOD1 091359Z 34006KT M04/M07 A3038 RMK A01 T10371067  RH  080%=      5-min Rain = 0
KOD1 091400Z 34007KT M04/M07 A3038 RMK A01 T10371066  RH  080%=      5-min Rain = 0
KOD1 091401Z 33007KT M04/M07 A3038 RMK A01 T10361066  RH  079%=      5-min Rain = 0
KOD1 091402Z 33007KT M04/M07 A3038 RMK A01 T10361066  RH  079%=      5-min Rain = 0
KOD1 091403Z 33007KT M04/M07 A3038 RMK A01 T10361066  RH  079%=      5-min Rain = 0
KOD1 091404Z 33007KT M04/M07 A3038 RMK A01 T10351066  RH  079%=      5-min Rain = 0
KOD1 091405Z 33007KT M04/M07 A3038 RMK A01 T10351066  RH  079%=      5-min Rain = 0
KOD1 091406Z 33006KT M04/M07 A3038 RMK A01 T10351066  RH  079%=      5-min Rain = 0
KOD1 091407Z 33007KT M03/M07 A3038 RMK A01 T10341066  RH  079%=      5-min Rain = 0
KOD1 091408Z 33007KT M03/M07 A3038 RMK A01 T10341066  RH  078%=      5-min Rain = 0
KOD1 091409Z 33007KT M03/M07 A3038 RMK A01 T10341066  RH  078%=      5-min Rain = 0
KOD1 091410Z 33007KT M03/M07 A3038 RMK A01 T10341066  RH  079%=      5-min Rain = 0
KOD1 091411Z 34007KT M03/M07 A3038 RMK A01 T10331066  RH  078%=      5-min Rain = 0
KOD1 091412Z 34007KT M03/M07 A3038 RMK A01 T10331065  RH  078%=      5-min Rain = 0
KOD1 091413Z 34007KT M03/M07 A3038 RMK A01 T10331065  RH  078%=      5-min Rain = 0
KOD1 091414Z 34008KT M03/M07 A3038 RMK A01 T10321066  RH  078%=      5-min Rain = 0
KOD1 091415Z 34008KT M03/M07 A3038 RMK A01 T10321066  RH  078%=      5-min Rain = 0
KOD1 091416Z 34007KT M03/M07 A3038 RMK A01 T10311065  RH  078%=      5-min Rain = 0
KOD1 091417Z 34008KT M03/M07 A3038 RMK A01 T10311065  RH  077%=      5-min Rain = 0
KOD1 091418Z 34007KT M03/M07 A3038 RMK A01 T10301065  RH  077%=      5-min Rain = 0
KOD1 091419Z 34007KT M03/M06 A3038 RMK A01 T10301064  RH  077%=      5-min Rain = 0
KOD1 091420Z 34007KT M03/M06 A3038 RMK A01 T10291064  RH  077%=      5-min Rain = 0
KOD1 091421Z 34008KT M03/M06 A3038 RMK A01 T10291064  RH  077%=      5-min Rain = 0
KOD1 091422Z 34007KT M03/M06 A3039 RMK A01 T10281063  RH  077%=      5-min Rain = 0
KOD1 091423Z 34008KT M03/M06 A3039 RMK A01 T10281063  RH  076%=      5-min Rain = 0
KOD1 091424Z 34008KT M03/M06 A3039 RMK A01 T10271064  RH  076%=      5-min Rain = 0
KOD1 091425Z 34007KT M03/M06 A3039 RMK A01 T10271063  RH  076%=      5-min Rain = 0
KOD1 091426Z 34008KT M03/M06 A3039 RMK A01 T10261063  RH  076%=      5-min Rain = 0
KOD1 091427Z 35009KT M03/M06 A3039 RMK A01 T10261063  RH  076%=      5-min Rain = 0
KOD1 091428Z 35008KT M03/M06 A3039 RMK A01 T10261062  RH  076%=      5-min Rain = 0
KOD1 091429Z 35008KT M03/M06 A3039 RMK A01 T10251062  RH  076%=      5-min Rain = 0
KOD1 091430Z 35008KT M03/M06 A3039 RMK A01 T10251060  RH  076%=      5-min Rain = 0
KOD1 091431Z 35008KT M02/M06 A3039 RMK A01 T10241060  RH  076%=      5-min Rain = 0
KOD1 091432Z 35007KT M02/M06 A3039 RMK A01 T10231059  RH  077%=      5-min Rain = 0
KOD1 091433Z 35008KT M02/M06 A3039 RMK A01 T10231059  RH  076%=      5-min Rain = 0
KOD1 091434Z 35007KT M02/M06 A3039 RMK A01 T10221058  RH  076%=      5-min Rain = 0
KOD1 091435Z 35007KT M02/M06 A3039 RMK A01 T10211058  RH  076%=      5-min Rain = 0
KOD1 091436Z 35007KT M02/M06 A3039 RMK A01 T10201058  RH  075%=      5-min Rain = 0
KOD1 091437Z 35008KT M02/M06 A3039 RMK A01 T10201058  RH  075%=      5-min Rain = 0
KOD1 091438Z 35007KT M02/M06 A3039 RMK A01 T10191058  RH  075%=      5-min Rain = 0
KOD1 091439Z 35007KT M02/M06 A3039 RMK A01 T10181055  RH  076%=      5-min Rain = 0
KOD1 091440Z 34008KT M02/M06 A3039 RMK A01 T10171056  RH  075%=      5-min Rain = 0
KOD1 091441Z 35007KT M02/M06 A3039 RMK A01 T10171055  RH  075%=      5-min Rain = 0
KOD1 091442Z 34006KT M02/M05 A3039 RMK A01 T10161053  RH  075%=      5-min Rain = 0
KOD1 091443Z 34007KT M01/M05 A3039 RMK A01 T10141053  RH  075%=      5-min Rain = 0
KOD1 091444Z 34007KT M01/M05 A3039 RMK A01 T10141054  RH  074%=      5-min Rain = 0
KOD1 091445Z 34007KT M01/M05 A3039 RMK A01 T10131053  RH  074%=      5-min Rain = 0
KOD1 091446Z 34007KT M01/M05 A304 RMK A01 T10131054  RH  074%=      5-min Rain = 0
KOD1 091447Z 33008KT M01/M05 A304 RMK A01 T10121053  RH  074%=      5-min Rain = 0
KOD1 091448Z 34009KT M01/M06 A304 RMK A01 T10121055  RH  072%=      5-min Rain = 0
KOD1 091449Z 34008KT M01/M06 A304 RMK A01 T10121055  RH  072%=      5-min Rain = 0
KOD1 091450Z 33007KT M01/M05 A304 RMK A01 T10111053  RH  073%=      5-min Rain = 0
KOD1 091451Z 33005KT M01/M05 A304 RMK A01 T10101052  RH  073%=      5-min Rain = 0
KOD1 091452Z 33007KT M01/M05 A304 RMK A01 T10091051  RH  073%=      5-min Rain = 0
KOD1 091453Z 33006KT M01/M05 A304 RMK A01 T10081052  RH  072%=      5-min Rain = 0
KOD1 091454Z 34008KT M01/M05 A304 RMK A01 T10081053  RH  072%=      5-min Rain = 0
KOD1 091455Z 34007KT M01/M06 A304 RMK A01 T10081055  RH  071%=      5-min Rain = 0
KOD1 091456Z 33007KT M01/M05 A304 RMK A01 T10081054  RH  071%=      5-min Rain = 0
KOD1 091457Z 34009KT M01/M06 A304 RMK A01 T10091056  RH  070%=      5-min Rain = 0
KOD1 091458Z 34008KT M01/M06 A304 RMK A01 T10091056  RH  070%=      5-min Rain = 0
KOD1 091459Z 34007KT M01/M05 A304 RMK A01 T10091054  RH  072%=      5-min Rain = 0
KOD1 091500Z 34007KT M01/M05 A304 RMK A01 T10081052  RH  072%=      5-min Rain = 0
KOD1 091501Z 34006KT M01/M05 A304 RMK A01 T10081053  RH  071%=      5-min Rain = 0
KOD1 091502Z 34008KT M01/M05 A304 RMK A01 T10071053  RH  071%=      5-min Rain = 0
KOD1 091503Z 34008KT M01/M05 A304 RMK A01 T10071054  RH  071%=      5-min Rain = 0
KOD1 091504Z 35008KT M01/M05 A3041 RMK A01 T10071053  RH  071%=      5-min Rain = 0
KOD1 091505Z 35008KT M01/M05 A3041 RMK A01 T10071054  RH  070%=      5-min Rain = 0
KOD1 091506Z 34008KT M01/M05 A3041 RMK A01 T10061052  RH  071%=      5-min Rain = 0
KOD1 091507Z 35009KT M01/M05 A3041 RMK A01 T10051053  RH  070%=      5-min Rain = 0
KOD1 091508Z 34008KT M01/M05 A3041 RMK A01 T10051052  RH  071%=      5-min Rain = 0
KOD1 091509Z 35008KT M00/M05 A3041 RMK A01 T10041052  RH  070%=      5-min Rain = 0
KOD1 091510Z 35007KT M00/M05 A3041 RMK A01 T10041051  RH  071%=      5-min Rain = 0
KOD1 091511Z 35007KT M00/M05 A3041 RMK A01 T10031053  RH  069%=      5-min Rain = 0
KOD1 091512Z 34007KT M00/M05 A3041 RMK A01 T10031051  RH  070%=      5-min Rain = 0
KOD1 091513Z 34007KT M00/M05 A3041 RMK A01 T10021050  RH  070%=      5-min Rain = 0
KOD1 091514Z 34007KT M00/M05 A3041 RMK A01 T10011050  RH  069%=      5-min Rain = 0
KOD1 091515Z 34006KT M00/M05 A3041 RMK A01 T10011051  RH  069%=      5-min Rain = 0
KOD1 091516Z 34004KT 00/05 A3041 RMK A01 T00000-48  RH  070%=      5-min Rain = 0
KOD1 091517Z 33005KT 00/M05 A3041 RMK A01 T00021047  RH  070%=      5-min Rain = 0
KOD1 091518Z 33005KT 00/M05 A3041 RMK A01 T00021049  RH  068%=      5-min Rain = 0
KOD1 091519Z 33005KT 00/M05 A3041 RMK A01 T00021050  RH  068%=      5-min Rain = 0
KOD1 091520Z 34005KT 00/M05 A3042 RMK A01 T00031049  RH  068%=      5-min Rain = 0
KOD1 091521Z 33005KT 00/M05 A3042 RMK A01 T00031046  RH  069%=      5-min Rain = 0
KOD1 091522Z 34005KT 01/M05 A3042 RMK A01 T00051046  RH  069%=      5-min Rain = 0
KOD1 091523Z 34005KT 01/M05 A3042 RMK A01 T00061046  RH  068%=      5-min Rain = 0
KOD1 091524Z 33005KT 01/M05 A3042 RMK A01 T00061046  RH  068%=      5-min Rain = 0
KOD1 091525Z 33005KT 01/M05 A3042 RMK A01 T00071046  RH  067%=      5-min Rain = 0
KOD1 091526Z 32006KT 01/M05 A3042 RMK A01 T00071048  RH  067%=      5-min Rain = 0
KOD1 091527Z 32005KT 01/M05 A3042 RMK A01 T00071045  RH  068%=      5-min Rain = 0
KOD1 091528Z 32005KT 01/M05 A3042 RMK A01 T00081046  RH  067%=      5-min Rain = 0
KOD1 091529Z 32005KT 01/M05 A3042 RMK A01 T00081046  RH  067%=      5-min Rain = 0
KOD1 091530Z 33006KT 01/M05 A3042 RMK A01 T00091046  RH  067%=      5-min Rain = 0
KOD1 091531Z 33006KT 01/M05 A3042 RMK A01 T00091049  RH  065%=      5-min Rain = 0
KOD1 091532Z 32006KT 01/M05 A3042 RMK A01 T00091045  RH  067%=      5-min Rain = 0
KOD1 091533Z 32007KT 01/M05 A3042 RMK A01 T00091047  RH  066%=      5-min Rain = 0
KOD1 091534Z 33007KT 01/M05 A3042 RMK A01 T00091047  RH  066%=      5-min Rain = 0
KOD1 091535Z 33007KT 01/M05 A3042 RMK A01 T00091046  RH  066%=      5-min Rain = 0
KOD1 091536Z 32006KT 01/M05 A3042 RMK A01 T00101046  RH  067%=      5-min Rain = 0
KOD1 091537Z 33008KT 01/M05 A3042 RMK A01 T00101047  RH  066%=      5-min Rain = 0
KOD1 091538Z 33008KT 01/M05 A3042 RMK A01 T00091048  RH  065%=      5-min Rain = 0
KOD1 091539Z 33006KT 01/M05 A3042 RMK A01 T00091047  RH  066%=      5-min Rain = 0
KOD1 091540Z 32006KT 01/M05 A3042 RMK A01 T00091047  RH  066%=      5-min Rain = 0
KOD1 091541Z 33007KT 01/M04 A3043 RMK A01 T00101044  RH  067%=      5-min Rain = 0
KOD1 091542Z 32007KT 01/M05 A3043 RMK A01 T00101047  RH  066%=      5-min Rain = 0
KOD1 091543Z 32006KT 01/M05 A3043 RMK A01 T00101046  RH  066%=      5-min Rain = 0
KOD1 091544Z 32007KT 01/M05 A3043 RMK A01 T00101045  RH  067%=      5-min Rain = 0
KOD1 091545Z 32008KT 01/M05 A3043 RMK A01 T00111046  RH  066%=      5-min Rain = 0
KOD1 091546Z 32008KT 01/M05 A3043 RMK A01 T00101047  RH  066%=      5-min Rain = 0
KOD1 091547Z 31007KT 01/M05 A3043 RMK A01 T00101045  RH  067%=      5-min Rain = 0
KOD1 091548Z 32006KT 01/M04 A3043 RMK A01 T00101044  RH  067%=      5-min Rain = 0
KOD1 091549Z 32007KT 01/M04 A3043 RMK A01 T00111043  RH  067%=      5-min Rain = 0
KOD1 091550Z 33006KT 01/M04 A3043 RMK A01 T00111044  RH  067%=      5-min Rain = 0
KOD1 091551Z 32006KT 01/M04 A3043 RMK A01 T00111044  RH  066%=      5-min Rain = 0
KOD1 091552Z 33006KT 01/M04 A3043 RMK A01 T00121044  RH  066%=      5-min Rain = 0
KOD1 091553Z 31006KT 01/M04 A3043 RMK A01 T00121044  RH  066%=      5-min Rain = 0
KOD1 091554Z 32006KT 01/M04 A3043 RMK A01 T00121043  RH  066%=      5-min Rain = 0
KOD1 091555Z 34005KT 01/M04 A3043 RMK A01 T00131043  RH  066%=      5-min Rain = 0
KOD1 091556Z 34007KT 01/M05 A3043 RMK A01 T00131046  RH  064%=      5-min Rain = 0
KOD1 091557Z 33007KT 01/M05 A3043 RMK A01 T00131045  RH  065%=      5-min Rain = 0
KOD1 091558Z 33007KT 01/M05 A3043 RMK A01 T00131048  RH  064%=      5-min Rain = 0
KOD1 091559Z 32007KT 01/M05 A3043 RMK A01 T00141045  RH  065%=      5-min Rain = 0
KOD1 091600Z 31006KT 02/M04 A3043 RMK A01 T00151043  RH  065%=      5-min Rain = 0
KOD1 091601Z 32007KT 02/M04 A3043 RMK A01 T00171041  RH  065%=      5-min Rain = 0
KOD1 091602Z 33006KT 02/M04 A3043 RMK A01 T00191040  RH  065%=      5-min Rain = 0
KOD1 091603Z 32007KT 02/M04 A3043 RMK A01 T00201043  RH  063%=      5-min Rain = 0
KOD1 091604Z 34006KT 02/M04 A3043 RMK A01 T00211041  RH  064%=      5-min Rain = 0
KOD1 091605Z 35007KT 02/M05 A3043 RMK A01 T00211046  RH  061%=      5-min Rain = 0
KOD1 091606Z 34007KT 02/M05 A3043 RMK A01 T00211046  RH  061%=      5-min Rain = 0
KOD1 091607Z 35007KT 02/M05 A3043 RMK A01 T00211046  RH  061%=      5-min Rain = 0
KOD1 091608Z 35007KT 02/M05 A3042 RMK A01 T00211045  RH  062%=      5-min Rain = 0
KOD1 091609Z 33006KT 02/M05 A3042 RMK A01 T00211046  RH  061%=      5-min Rain = 0
KOD1 091610Z 34005KT 02/M05 A3042 RMK A01 T00211045  RH  061%=      5-min Rain = 0
KOD1 091611Z 33005KT 02/M04 A3042 RMK A01 T00221041  RH  063%=      5-min Rain = 0
KOD1 091612Z 34005KT 02/M04 A3042 RMK A01 T00231043  RH  062%=      5-min Rain = 0
KOD1 091613Z 34006KT 02/M04 A3042 RMK A01 T00241042  RH  062%=      5-min Rain = 0
KOD1 091614Z 35006KT 02/M04 A3042 RMK A01 T00241043  RH  061%=      5-min Rain = 0
KOD1 091615Z 33008KT 02/M04 A3042 RMK A01 T00241040  RH  062%=      5-min Rain = 0
KOD1 091616Z 32006KT 03/M04 A3042 RMK A01 T00251041  RH  062%=      5-min Rain = 0
KOD1 091617Z 34007KT 03/M04 A3042 RMK A01 T00251040  RH  062%=      5-min Rain = 0
KOD1 091618Z 33007KT 03/M04 A3043 RMK A01 T00251043  RH  061%=      5-min Rain = 0
KOD1 091619Z 32006KT 03/M04 A3043 RMK A01 T00251043  RH  061%=      5-min Rain = 0
KOD1 091620Z 33006KT 03/M04 A3043 RMK A01 T00251043  RH  061%=      5-min Rain = 0
KOD1 091621Z 33007KT 03/M04 A3043 RMK A01 T00251044  RH  061%=      5-min Rain = 0
KOD1 091622Z 33006KT 02/M05 A3043 RMK A01 T00241045  RH  060%=      5-min Rain = 0
KOD1 091623Z 34007KT 02/M04 A3043 RMK A01 T00241044  RH  061%=      5-min Rain = 0
KOD1 091624Z 34006KT 02/M04 A3043 RMK A01 T00231043  RH  061%=      5-min Rain = 0
KOD1 091625Z 33007KT 02/M04 A3043 RMK A01 T00241043  RH  061%=      5-min Rain = 0
KOD1 091626Z 32007KT 02/M04 A3043 RMK A01 T00241044  RH  061%=      5-min Rain = 0
KOD1 091627Z 32007KT 02/M04 A3043 RMK A01 T00241043  RH  061%=      5-min Rain = 0
KOD1 091628Z 32006KT 03/M04 A3043 RMK A01 T00251041  RH  062%=      5-min Rain = 0
KOD1 091629Z 33009KT 03/M04 A3043 RMK A01 T00261043  RH  060%=      5-min Rain = 0
KOD1 091630Z 33007KT 03/M05 A3043 RMK A01 T00261045  RH  060%=      5-min Rain = 0
KOD1 091631Z 33006KT 03/M04 A3043 RMK A01 T00261043  RH  060%=      5-min Rain = 0
KOD1 091632Z 33007KT 03/M04 A3043 RMK A01 T00261044  RH  060%=      5-min Rain = 0
KOD1 091633Z 32007KT 03/M04 A3043 RMK A01 T00271044  RH  060%=      5-min Rain = 0
KOD1 091634Z 32005KT 03/M04 A3043 RMK A01 T00271044  RH  059%=      5-min Rain = 0
KOD1 091635Z 31005KT 03/M04 A3043 RMK A01 T00271043  RH  060%=      5-min Rain = 0
KOD1 091636Z 33006KT 03/M04 A3043 RMK A01 T00281043  RH  060%=      5-min Rain = 0
KOD1 091637Z 33006KT 03/M05 A3043 RMK A01 T00291045  RH  058%=      5-min Rain = 0
KOD1 091638Z 33006KT 03/M04 A3043 RMK A01 T00281043  RH  059%=      5-min Rain = 0
KOD1 091639Z 32008KT 03/M04 A3043 RMK A01 T00291044  RH  059%=      5-min Rain = 0
KOD1 091640Z 31007KT 03/M04 A3043 RMK A01 T00291044  RH  059%=      5-min Rain = 0
KOD1 091641Z 32008KT 03/M04 A3043 RMK A01 T00291044  RH  059%=      5-min Rain = 0
KOD1 091642Z 32005KT 03/M04 A3043 RMK A01 T00291044  RH  058%=      5-min Rain = 0
KOD1 091643Z 31007KT 03/M04 A3043 RMK A01 T00301041  RH  059%=      5-min Rain = 0
KOD1 091644Z 33008KT 03/M04 A3043 RMK A01 T00321042  RH  058%=      5-min Rain = 0
KOD1 091645Z 34008KT 03/M04 A3043 RMK A01 T00321044  RH  057%=      5-min Rain = 0
KOD1 091646Z 34007KT 03/M05 A3043 RMK A01 T00321047  RH  056%=      5-min Rain = 0
KOD1 091647Z 31006KT 03/M04 A3043 RMK A01 T00321043  RH  058%=      5-min Rain = 0
KOD1 091648Z 33005KT 03/M04 A3043 RMK A01 T00331044  RH  057%=      5-min Rain = 0
KOD1 091649Z 32008KT 03/M04 A3043 RMK A01 T00341042  RH  057%=      5-min Rain = 0
KOD1 091650Z 33008KT 04/M05 A3043 RMK A01 T00351046  RH  056%=      5-min Rain = 0
KOD1 091651Z 32006KT 03/M05 A3043 RMK A01 T00341049  RH  055%=      5-min Rain = 0
KOD1 091652Z 33004KT 03/M04 A3043 RMK A01 T00341043  RH  057%=      5-min Rain = 0
KOD1 091653Z 32004KT 04/M04 A3043 RMK A01 T00351044  RH  057%=      5-min Rain = 0
KOD1 091654Z 32006KT 04/M04 A3043 RMK A01 T00361039  RH  058%=      5-min Rain = 0
KOD1 091655Z 32007KT 04/M04 A3043 RMK A01 T00371043  RH  056%=      5-min Rain = 0
KOD1 091656Z 31005KT 04/M04 A3043 RMK A01 T00381042  RH  056%=      5-min Rain = 0
KOD1 091657Z 33009KT 04/M04 A3043 RMK A01 T00391044  RH  055%=      5-min Rain = 0
KOD1 091658Z 34007KT 04/M05 A3043 RMK A01 T00371048  RH  054%=      5-min Rain = 0
KOD1 091659Z 34006KT 04/M05 A3043 RMK A01 T00371047  RH  054%=      5-min Rain = 0
KOD1 091700Z 35004KT 04/M05 A3042 RMK A01 T00371046  RH  055%=      5-min Rain = 0
KOD1 091701Z 34005KT 04/M05 A3043 RMK A01 T00371046  RH  055%=      5-min Rain = 0
KOD1 091702Z 34005KT 04/M05 A3043 RMK A01 T00381047  RH  054%=      5-min Rain = 0
KOD1 091703Z 34008KT 04/M05 A3043 RMK A01 T00391049  RH  053%=      5-min Rain = 0
KOD1 091704Z 35006KT 04/M05 A3043 RMK A01 T00381049  RH  053%=      5-min Rain = 0
KOD1 091705Z 33005G10KT 04/M05 A3042 RMK A01 T00381045  RH  054%=      5-min Rain = 0
KOD1 091706Z 33009KT 04/M05 A3042 RMK A01 T00391045  RH  054%=      5-min Rain = 0
KOD1 091707Z 34006KT 04/M05 A3042 RMK A01 T00401048  RH  053%=      5-min Rain = 0
KOD1 091708Z 34007KT 04/M04 A3042 RMK A01 T00401043  RH  055%=      5-min Rain = 0
KOD1 091709Z 35007KT 04/M04 A3042 RMK A01 T00421041  RH  055%=      5-min Rain = 0
KOD1 091710Z 35008KT 04/M05 A3042 RMK A01 T00421052  RH  050%=      5-min Rain = 0
KOD1 091711Z 36007KT 04/M05 A3042 RMK A01 T00421048  RH  052%=      5-min Rain = 0
KOD1 091712Z 00008KT 04/M05 A3042 RMK A01 T00431048  RH  051%=      5-min Rain = 0
KOD1 091713Z 33006KT 04/M04 A3042 RMK A01 T00441044  RH  053%=      5-min Rain = 0
KOD1 091714Z 35006KT 05/M04 A3042 RMK A01 T00451044  RH  052%=      5-min Rain = 0
KOD1 091715Z 35008KT 05/M04 A3042 RMK A01 T00461043  RH  052%=      5-min Rain = 0
KOD1 091716Z 00006KT 05/M05 A3042 RMK A01 T00451049  RH  050%=      5-min Rain = 0
KOD1 091717Z 35005KT 04/M05 A3042 RMK A01 T00441048  RH  051%=      5-min Rain = 0
KOD1 091718Z 35007KT 05/M04 A3042 RMK A01 T00451043  RH  053%=      5-min Rain = 0
KOD1 091719Z 35006KT 05/M04 A3042 RMK A01 T00451043  RH  053%=      5-min Rain = 0
KOD1 091720Z 35006KT 05/M05 A3042 RMK A01 T00451046  RH  052%=      5-min Rain = 0
KOD1 091721Z 36006KT 05/M05 A3042 RMK A01 T00451046  RH  052%=      5-min Rain = 0
KOD1 091722Z 36005KT 04/M05 A3042 RMK A01 T00441049  RH  051%=      5-min Rain = 0
KOD1 091723Z 35007KT 04/M05 A3042 RMK A01 T00441047  RH  052%=      5-min Rain = 0
KOD1 091724Z 35009KT 04/M05 A3042 RMK A01 T00441051  RH  050%=      5-min Rain = 0
KOD1 091725Z 36007KT 04/M05 A3042 RMK A01 T00431052  RH  050%=      5-min Rain = 0
KOD1 091726Z 36009KT 04/M05 A3042 RMK A01 T00431049  RH  051%=      5-min Rain = 0
KOD1 091727Z 36008KT 04/M05 A3042 RMK A01 T00431051  RH  051%=      5-min Rain = 0
KOD1 091728Z 36006KT 04/M05 A3042 RMK A01 T00431046  RH  052%=      5-min Rain = 0
KOD1 091729Z 36005KT 05/M05 A3042 RMK A01 T00451045  RH  052%=      5-min Rain = 0
KOD1 091730Z 36008KT 05/M05 A3042 RMK A01 T00461046  RH  051%=      5-min Rain = 0
KOD1 091731Z 00006KT 05/M05 A3042 RMK A01 T00461051  RH  049%=      5-min Rain = 0
KOD1 091732Z 36006KT 05/M05 A3042 RMK A01 T00461050  RH  050%=      5-min Rain = 0
KOD1 091733Z 00006KT 05/M05 A3042 RMK A01 T00461049  RH  050%=      5-min Rain = 0
KOD1 091734Z 33007KT 05/M05 A3042 RMK A01 T00461052  RH  049%=      5-min Rain = 0
KOD1 091735Z 32005KT 04/M06 A3042 RMK A01 T00441056  RH  048%=      5-min Rain = 0
KOD1 091736Z 34006KT 05/M05 A3042 RMK A01 T00451049  RH  051%=      5-min Rain = 0
KOD1 091737Z 01008KT 05/M05 A3042 RMK A01 T00461054  RH  048%=      5-min Rain = 0
KOD1 091738Z 36006KT 05/M06 A3042 RMK A01 T00451056  RH  048%=      5-min Rain = 0
KOD1 091739Z 36005KT 05/M05 A3042 RMK A01 T00461050  RH  050%=      5-min Rain = 0
KOD1 091740Z 00005KT 05/M05 A3042 RMK A01 T00481048  RH  050%=      5-min Rain = 0
KOD1 091741Z 34007KT 05/M05 A3042 RMK A01 T00481049  RH  050%=      5-min Rain = 0
KOD1 091742Z 35007KT 05/M05 A3042 RMK A01 T00481050  RH  049%=      5-min Rain = 0
KOD1 091743Z 35005KT 05/M06 A3041 RMK A01 T00471056  RH  047%=      5-min Rain = 0
KOD1 091744Z 34004KT 05/M05 A3041 RMK A01 T00471054  RH  048%=      5-min Rain = 0
KOD1 091745Z 34005KT 05/M05 A3041 RMK A01 T00481049  RH  049%=      5-min Rain = 0
KOD1 091746Z 32006KT 05/M05 A3041 RMK A01 T00491052  RH  048%=      5-min Rain = 0
KOD1 091747Z 31003KT 05/M05 A3041 RMK A01 T00491054  RH  047%=      5-min Rain = 0
KOD1 091748Z 32003KT 05/M05 A3041 RMK A01 T00491053  RH  048%=      5-min Rain = 0
KOD1 091749Z 33006KT 05/M05 A3041 RMK A01 T00511049  RH  049%=      5-min Rain = 0
KOD1 091750Z 34005KT 05/M05 A3041 RMK A01 T00511054  RH  046%=      5-min Rain = 0
KOD1 091751Z 01004KT 05/M05 A3041 RMK A01 T00511050  RH  048%=      5-min Rain = 0
KOD1 091752Z 35005KT 05/M05 A3041 RMK A01 T00521048  RH  048%=      5-min Rain = 0
KOD1 091753Z 33005KT 05/M05 A3041 RMK A01 T00521051  RH  047%=      5-min Rain = 0
KOD1 091754Z 33004KT 05/M06 A3041 RMK A01 T00521055  RH  046%=      5-min Rain = 0
KOD1 091755Z 34005KT 05/M05 A3041 RMK A01 T00521052  RH  047%=      5-min Rain = 0
KOD1 091756Z 00006KT 05/M05 A3041 RMK A01 T00531047  RH  049%=      5-min Rain = 0
KOD1 091757Z 35004KT 05/M05 A3041 RMK A01 T00541049  RH  047%=      5-min Rain = 0
KOD1 091758Z 36005KT 06/M05 A3041 RMK A01 T00561047  RH  047%=      5-min Rain = 0
KOD1 091759Z 33006KT 06/M05 A3041 RMK A01 T00571050  RH  046%=      5-min Rain = 0
KOD1 091800Z 32006KT 06/M05 A3041 RMK A01 T00561049  RH  047%=      5-min Rain = 0
KOD1 091801Z 34004KT 06/M05 A3041 RMK A01 T00561051  RH  046%=      5-min Rain = 0
KOD1 091802Z 33004KT 06/M05 A304 RMK A01 T00561050  RH  046%=      5-min Rain = 0
KOD1 091803Z 34006KT 06/M05 A304 RMK A01 T00571049  RH  047%=      5-min Rain = 0
KOD1 091804Z 32006KT 06/M05 A304 RMK A01 T00571051  RH  046%=      5-min Rain = 0
KOD1 091805Z 32004KT 06/M05 A304 RMK A01 T00561053  RH  045%=      5-min Rain = 0
KOD1 091806Z 01005KT 06/M05 A304 RMK A01 T00571051  RH  046%=      5-min Rain = 0
KOD1 091807Z 00005KT 06/M05 A304 RMK A01 T00581048  RH  047%=      5-min Rain = 0
KOD1 091808Z 00006KT 06/M05 A304 RMK A01 T00591052  RH  045%=      5-min Rain = 0
KOD1 091809Z 01006KT 06/M06 A304 RMK A01 T00581057  RH  043%=      5-min Rain = 0
KOD1 091810Z 01006KT 06/M06 A304 RMK A01 T00571057  RH  043%=      5-min Rain = 0
KOD1 091811Z 01006KT 06/M06 A3039 RMK A01 T00571056  RH  044%=      5-min Rain = 0
KOD1 091812Z 34005KT 06/M05 A3039 RMK A01 T00571052  RH  045%=      5-min Rain = 0
KOD1 091813Z 34006KT 06/M05 A3039 RMK A01 T00591049  RH  046%=      5-min Rain = 0
KOD1 091814Z 35006KT 06/M06 A3039 RMK A01 T00611055  RH  043%=      5-min Rain = 0
KOD1 091815Z 36004KT 06/M06 A3039 RMK A01 T00611056  RH  043%=      5-min Rain = 0
KOD1 091816Z 34004KT 06/M05 A3039 RMK A01 T00611051  RH  044%=      5-min Rain = 0
KOD1 091817Z 34004KT 06/M05 A3039 RMK A01 T00631051  RH  044%=      5-min Rain = 0
KOD1 091818Z 34007KT 06/M06 A3039 RMK A01 T00641055  RH  042%=      5-min Rain = 0
KOD1 091819Z 35005KT 06/M05 A3039 RMK A01 T00631054  RH  043%=      5-min Rain = 0
KOD1 091820Z 34006KT 06/M05 A3039 RMK A01 T00631053  RH  043%=      5-min Rain = 0
KOD1 091821Z 34004KT 06/M05 A3039 RMK A01 T00631054  RH  043%=      5-min Rain = 0
KOD1 091822Z 33005KT 06/M05 A3039 RMK A01 T00631054  RH  043%=      5-min Rain = 0
KOD1 091823Z 35004KT 06/M05 A3039 RMK A01 T00641053  RH  043%=      5-min Rain = 0
KOD1 091824Z 36007KT 06/M06 A3038 RMK A01 T00641056  RH  042%=      5-min Rain = 0
KOD1 091825Z 02008KT 06/M07 A3038 RMK A01 T00631066  RH  039%=      5-min Rain = 0
KOD1 091826Z 01007KT 06/M06 A3038 RMK A01 T00631064  RH  040%=      5-min Rain = 0
KOD1 091827Z 01006KT 06/M07 A3038 RMK A01 T00631070  RH  038%=      5-min Rain = 0
KOD1 091828Z 00007KT 07/M06 A3038 RMK A01 T00651064  RH  039%=      5-min Rain = 0
KOD1 091829Z 00007KT 06/M07 A3038 RMK A01 T00641069  RH  038%=      5-min Rain = 0
KOD1 091830Z 00006KT 06/M07 A3038 RMK A01 T00631070  RH  038%=      5-min Rain = 0
KOD1 091831Z 02004KT 06/M07 A3038 RMK A01 T00631067  RH  039%=      5-min Rain = 0
KOD1 091832Z 35008KT 06/M06 A3038 RMK A01 T00641062  RH  040%=      5-min Rain = 0
KOD1 091833Z 36006KT 06/M07 A3038 RMK A01 T00641065  RH  039%=      5-min Rain = 0
KOD1 091834Z 36005KT 07/M07 A3038 RMK A01 T00651074  RH  036%=      5-min Rain = 0
KOD1 091835Z 01006KT 07/M08 A3038 RMK A01 T00651078  RH  035%=      5-min Rain = 0
KOD1 091836Z 36007KT 07/M06 A3038 RMK A01 T00651060  RH  041%=      5-min Rain = 0
KOD1 091837Z 35006KT 07/M06 A3038 RMK A01 T00661063  RH  039%=      5-min Rain = 0
KOD1 091838Z 01005KT 07/M06 A3038 RMK A01 T00661062  RH  040%=      5-min Rain = 0
KOD1 091839Z 01003KT 07/M06 A3038 RMK A01 T00661063  RH  039%=      5-min Rain = 0
KOD1 091840Z 34003KT 07/M07 A3038 RMK A01 T00671066  RH  038%=      5-min Rain = 0
KOD1 091841Z 35004KT 07/M06 A3038 RMK A01 T00671062  RH  039%=      5-min Rain = 0
KOD1 091842Z 35006KT 07/M06 A3038 RMK A01 T00681059  RH  040%=      5-min Rain = 0
KOD1 091843Z 33007KT 07/M07 A3038 RMK A01 T00701065  RH  038%=      5-min Rain = 0
KOD1 091844Z 35005KT 07/M08 A3038 RMK A01 T00701076  RH  034%=      5-min Rain = 0
KOD1 091845Z 01005KT 07/M07 A3038 RMK A01 T00701073  RH  035%=      5-min Rain = 0
KOD1 091846Z 02005KT 07/M07 A3038 RMK A01 T00711065  RH  037%=      5-min Rain = 0
KOD1 091847Z 02004KT 07/M07 A3038 RMK A01 T00711066  RH  037%=      5-min Rain = 0
KOD1 091848Z 02006KT 07/M06 A3038 RMK A01 T00721063  RH  038%=      5-min Rain = 0
KOD1 091849Z 02005KT 07/M07 A3038 RMK A01 T00721072  RH  035%=      5-min Rain = 0
KOD1 091850Z 34006KT 07/M08 A3038 RMK A01 T00721076  RH  034%=      5-min Rain = 0
KOD1 091851Z 35004KT 07/M08 A3038 RMK A01 T00721083  RH  032%=      5-min Rain = 0
KOD1 091852Z 34004KT 07/M08 A3038 RMK A01 T00721079  RH  033%=      5-min Rain = 0
KOD1 091853Z 00005KT 07/M07 A3037 RMK A01 T00721072  RH  035%=      5-min Rain = 0
KOD1 091854Z 01005KT 07/M07 A3037 RMK A01 T00731074  RH  034%=      5-min Rain = 0
KOD1 091855Z 02007KT 07/M08 A3037 RMK A01 T00731077  RH  034%=      5-min Rain = 0
KOD1 091856Z 02006KT 07/M08 A3037 RMK A01 T00721076  RH  034%=      5-min Rain = 0
KOD1 091857Z 01006KT 07/M07 A3037 RMK A01 T00721074  RH  035%=      5-min Rain = 0
KOD1 091858Z 35004KT 07/M07 A3037 RMK A01 T00731072  RH  035%=      5-min Rain = 0
KOD1 091859Z 02002KT 07/M08 A3037 RMK A01 T00721077  RH  034%=      5-min Rain = 0
KOD1 091900Z 35003KT 07/M07 A3037 RMK A01 T00721070  RH  036%=      5-min Rain = 0
KOD1 091901Z 01005KT 07/M07 A3037 RMK A01 T00731071  RH  035%=      5-min Rain = 0
KOD1 091902Z 02006KT 07/M07 A3037 RMK A01 T00721068  RH  036%=      5-min Rain = 0
KOD1 091903Z 02005KT 07/M07 A3037 RMK A01 T00731065  RH  037%=      5-min Rain = 0
KOD1 091904Z 36004KT 07/M07 A3037 RMK A01 T00741067  RH  036%=      5-min Rain = 0
KOD1 091905Z 35005KT 08/M07 A3037 RMK A01 T00751068  RH  036%=      5-min Rain = 0
KOD1 091906Z 00007KT 08/M07 A3037 RMK A01 T00771069  RH  035%=      5-min Rain = 0
KOD1 091907Z 35006KT 08/M08 A3037 RMK A01 T00771079  RH  032%=      5-min Rain = 0
KOD1 091908Z 35006KT 08/M08 A3037 RMK A01 T00761079  RH  032%=      5-min Rain = 0
KOD1 091909Z 35005KT 08/M08 A3037 RMK A01 T00761078  RH  033%=      5-min Rain = 0
KOD1 091910Z 35006KT 08/M08 A3037 RMK A01 T00761076  RH  033%=      5-min Rain = 0
KOD1 091911Z 35007KT 08/M08 A3037 RMK A01 T00761077  RH  033%=      5-min Rain = 0
KOD1 091912Z 34005KT 08/M08 A3037 RMK A01 T00761079  RH  032%=      5-min Rain = 0
KOD1 091913Z 02004KT 08/M07 A3037 RMK A01 T00771070  RH  034%=      5-min Rain = 0
KOD1 091914Z 00005KT 08/M06 A3037 RMK A01 T00791063  RH  036%=      5-min Rain = 0
KOD1 091915Z 36005KT 08/M07 A3037 RMK A01 T00811067  RH  034%=      5-min Rain = 0
KOD1 091916Z 00005KT 08/M07 A3037 RMK A01 T00811072  RH  033%=      5-min Rain = 0
KOD1 091917Z 01006KT 08/M08 A3037 RMK A01 T00811075  RH  032%=      5-min Rain = 0
KOD1 091918Z 02005KT 08/M07 A3037 RMK A01 T00791073  RH  033%=      5-min Rain = 0
KOD1 091919Z 35004KT 08/M07 A3037 RMK A01 T00801070  RH  034%=      5-min Rain = 0
KOD1 091920Z 33005KT 08/M08 A3037 RMK A01 T00801077  RH  032%=      5-min Rain = 0
KOD1 091921Z 32005KT 08/M08 A3037 RMK A01 T00801079  RH  032%=      5-min Rain = 0
KOD1 091922Z 33005KT 08/M08 A3037 RMK A01 T00811078  RH  032%=      5-min Rain = 0
KOD1 091923Z 32005KT 08/M08 A3037 RMK A01 T00811077  RH  032%=      5-min Rain = 0
KOD1 091924Z 31004KT 08/M08 A3037 RMK A01 T00821076  RH  032%=      5-min Rain = 0
KOD1 091925Z 31004KT 08/M08 A3036 RMK A01 T00821078  RH  031%=      5-min Rain = 0
KOD1 091926Z 31004KT 08/M08 A3036 RMK A01 T00821079  RH  031%=      5-min Rain = 0
KOD1 091927Z 33004KT 08/M08 A3036 RMK A01 T00811078  RH  032%=      5-min Rain = 0
KOD1 091928Z 33004KT 08/M07 A3036 RMK A01 T00811072  RH  033%=      5-min Rain = 0
KOD1 091929Z 32006KT 08/M08 A3036 RMK A01 T00821079  RH  031%=      5-min Rain = 0
KOD1 091930Z 32005KT 08/M08 A3036 RMK A01 T00811079  RH  031%=      5-min Rain = 0
KOD1 091931Z 34006KT 08/M08 A3036 RMK A01 T00811082  RH  030%=      5-min Rain = 0
KOD1 091932Z 34006KT 08/M08 A3036 RMK A01 T00811083  RH  030%=      5-min Rain = 0
KOD1 091933Z 36006KT 08/M08 A3036 RMK A01 T00801084  RH  030%=      5-min Rain = 0
KOD1 091934Z 00006KT 08/M09 A3036 RMK A01 T00791085  RH  030%=      5-min Rain = 0
KOD1 091935Z 01006KT 08/M08 A3036 RMK A01 T00791082  RH  031%=      5-min Rain = 0
KOD1 091936Z 01004KT 08/M08 A3036 RMK A01 T00791081  RH  031%=      5-min Rain = 0
KOD1 091937Z 02006KT 08/M08 A3036 RMK A01 T00801079  RH  032%=      5-min Rain = 0
KOD1 091938Z 02005KT 08/M08 A3036 RMK A01 T00801084  RH  030%=      5-min Rain = 0
KOD1 091939Z 02003KT 08/M09 A3036 RMK A01 T00791085  RH  030%=      5-min Rain = 0
KOD1 091940Z 01003KT 08/M08 A3036 RMK A01 T00801082  RH  031%=      5-min Rain = 0
KOD1 091941Z 33004KT 08/M08 A3036 RMK A01 T00811082  RH  031%=      5-min Rain = 0
KOD1 091942Z 30005KT 08/M08 A3036 RMK A01 T00821083  RH  030%=      5-min Rain = 0
KOD1 091943Z 30004KT 08/M08 A3036 RMK A01 T00831082  RH  030%=      5-min Rain = 0
KOD1 091944Z 30006KT 08/M08 A3036 RMK A01 T00841081  RH  030%=      5-min Rain = 0
KOD1 091945Z 28003KT 09/M08 A3036 RMK A01 T00851082  RH  030%=      5-min Rain = 0
KOD1 091946Z 34006G11KT 09/M08 A3035 RMK A01 T00851077  RH  031%=      5-min Rain = 0
KOD1 091947Z 00004KT 09/M08 A3035 RMK A01 T00861079  RH  030%=      5-min Rain = 0
KOD1 091948Z 36006KT 09/M08 A3035 RMK A01 T00871076  RH  031%=      5-min Rain = 0
KOD1 091949Z 35005KT 09/M08 A3035 RMK A01 T00861079  RH  030%=      5-min Rain = 0
KOD1 091950Z 34002KT 09/M08 A3035 RMK A01 T00861081  RH  030%=      5-min Rain = 0
KOD1 091951Z 01002KT 09/M08 A3035 RMK A01 T00861081  RH  030%=      5-min Rain = 0
KOD1 091952Z 35003KT 09/M08 A3035 RMK A01 T00861075  RH  031%=      5-min Rain = 0
KOD1 091953Z 00007KT 09/M08 A3035 RMK A01 T00871077  RH  030%=      5-min Rain = 0
KOD1 091954Z 02006KT 09/M08 A3035 RMK A01 T00871082  RH  029%=      5-min Rain = 0
KOD1 091955Z 02005KT 09/M08 A3035 RMK A01 T00871079  RH  030%=      5-min Rain = 0
KOD1 091956Z 00005KT 09/M08 A3035 RMK A01 T00871078  RH  030%=      5-min Rain = 0
KOD1 091957Z 33006KT 09/M08 A3035 RMK A01 T00871081  RH  030%=      5-min Rain = 0
KOD1 091958Z 33006KT 09/M08 A3035 RMK A01 T00871079  RH  030%=      5-min Rain = 0
KOD1 091959Z 35005KT 09/M08 A3035 RMK A01 T00861083  RH  029%=      5-min Rain = 0
KOD1 092000Z 32005KT 09/M08 A3035 RMK A01 T00861078  RH  031%=      5-min Rain = 0
KOD1 092001Z 34005KT 09/M08 A3035 RMK A01 T00861079  RH  030%=      5-min Rain = 0
KOD1 092002Z 01007KT 09/M08 A3035 RMK A01 T00861076  RH  031%=      5-min Rain = 0
KOD1 092003Z 03006KT 09/M07 A3035 RMK A01 T00861074  RH  031%=      5-min Rain = 0
KOD1 092004Z 03005KT 09/M08 A3035 RMK A01 T00871078  RH  030%=      5-min Rain = 0
KOD1 092005Z 01004KT 09/M08 A3035 RMK A01 T00861075  RH  031%=      5-min Rain = 0
KOD1 092006Z 36004KT 09/M07 A3035 RMK A01 T00881071  RH  032%=      5-min Rain = 0
KOD1 092007Z 01004KT 09/M08 A3035 RMK A01 T00881078  RH  030%=      5-min Rain = 0
KOD1 092008Z 02004KT 09/M07 A3035 RMK A01 T00891074  RH  031%=      5-min Rain = 0
KOD1 092009Z 04005KT 09/M08 A3035 RMK A01 T00881075  RH  031%=      5-min Rain = 0
KOD1 092010Z 03007KT 09/M07 A3035 RMK A01 T00891074  RH  031%=      5-min Rain = 0
KOD1 092011Z 03005KT 09/M08 A3035 RMK A01 T00871078  RH  030%=      5-min Rain = 0
KOD1 092012Z 03004KT 09/M07 A3035 RMK A01 T00871074  RH  031%=      5-min Rain = 0
KOD1 092013Z 02005KT 09/M08 A3035 RMK A01 T00871077  RH  030%=      5-min Rain = 0
KOD1 092014Z 03003KT 09/M08 A3035 RMK A01 T00861078  RH  031%=      5-min Rain = 0
KOD1 092015Z 03002KT 09/M07 A3035 RMK A01 T00861074  RH  031%=      5-min Rain = 0
KOD1 092016Z 02004KT 09/M08 A3035 RMK A01 T00871076  RH  031%=      5-min Rain = 0
KOD1 092017Z 03005KT 09/M08 A3035 RMK A01 T00871076  RH  031%=      5-min Rain = 0
KOD1 092018Z 04003KT 09/M08 A3035 RMK A01 T00871077  RH  030%=      5-min Rain = 0
KOD1 092019Z 04003KT 09/M08 A3034 RMK A01 T00871075  RH  031%=      5-min Rain = 0
KOD1 092020Z 01004KT 09/M07 A3034 RMK A01 T00891073  RH  031%=      5-min Rain = 0
KOD1 092021Z 01003KT 09/M08 A3034 RMK A01 T00901076  RH  030%=      5-min Rain = 0
KOD1 092022Z 02003KT 09/M08 A3034 RMK A01 T00901077  RH  030%=      5-min Rain = 0
KOD1 092023Z 01005KT 09/M07 A3034 RMK A01 T00911070  RH  031%=      5-min Rain = 0
KOD1 092024Z 01005KT 09/M07 A3034 RMK A01 T00911072  RH  031%=      5-min Rain = 0
KOD1 092025Z 00004KT 09/M08 A3034 RMK A01 T00911076  RH  030%=      5-min Rain = 0
KOD1 092026Z 01006KT 09/M08 A3034 RMK A01 T00901075  RH  030%=      5-min Rain = 0
KOD1 092027Z 01005KT 09/M07 A3034 RMK A01 T00891074  RH  031%=      5-min Rain = 0
KOD1 092028Z 02005KT 09/M07 A3034 RMK A01 T00891074  RH  031%=      5-min Rain = 0
KOD1 092029Z 01005KT 09/M08 A3034 RMK A01 T00891076  RH  030%=      5-min Rain = 0
KOD1 092030Z 00006KT 09/M07 A3034 RMK A01 T00891074  RH  031%=      5-min Rain = 0
KOD1 092031Z 36006KT 09/M07 A3034 RMK A01 T00891072  RH  031%=      5-min Rain = 0
KOD1 092032Z 00004KT 09/M08 A3034 RMK A01 T00881076  RH  031%=      5-min Rain = 0
KOD1 092033Z 01005KT 09/M07 A3034 RMK A01 T00881074  RH  031%=      5-min Rain = 0
KOD1 092034Z 02005KT 09/M07 A3034 RMK A01 T00881073  RH  031%=      5-min Rain = 0
KOD1 092035Z 01006KT 09/M07 A3034 RMK A01 T00891072  RH  031%=      5-min Rain = 0
KOD1 092036Z 01005KT 09/M07 A3034 RMK A01 T00891069  RH  032%=      5-min Rain = 0
KOD1 092037Z 00004KT 09/M08 A3034 RMK A01 T00901076  RH  030%=      5-min Rain = 0
KOD1 092038Z 35003KT 09/M08 A3034 RMK A01 T00891075  RH  031%=      5-min Rain = 0
KOD1 092039Z 36003KT 09/M07 A3034 RMK A01 T00891071  RH  032%=      5-min Rain = 0
KOD1 092040Z 35004KT 09/M07 A3034 RMK A01 T00901071  RH  031%=      5-min Rain = 0
KOD1 092041Z 00003KT 09/M07 A3034 RMK A01 T00901073  RH  031%=      5-min Rain = 0
KOD1 092042Z 01003KT 09/M07 A3034 RMK A01 T00901072  RH  031%=      5-min Rain = 0
KOD1 092043Z 01002KT 09/M07 A3034 RMK A01 T00901073  RH  031%=      5-min Rain = 0
KOD1 092044Z 36003KT 09/M07 A3034 RMK A01 T00911070  RH  031%=      5-min Rain = 0
KOD1 092045Z 35005KT 09/M07 A3034 RMK A01 T00911069  RH  032%=      5-min Rain = 0
KOD1 092046Z 35004KT 09/M07 A3034 RMK A01 T00911072  RH  031%=      5-min Rain = 0
KOD1 092047Z 30004KT 09/M08 A3034 RMK A01 T00911075  RH  030%=      5-min Rain = 0
KOD1 092048Z 27003KT 09/M07 A3034 RMK A01 T00911074  RH  030%=      5-min Rain = 0
KOD1 092049Z 27002KT 09/M08 A3034 RMK A01 T00921075  RH  030%=      5-min Rain = 0
KOD1 092050Z 30001KT 09/M07 A3035 RMK A01 T00931074  RH  030%=      5-min Rain = 0
KOD1 092051Z 01004KT 09/M07 A3035 RMK A01 T00941071  RH  031%=      5-min Rain = 0
KOD1 092052Z 35005KT 09/M07 A3035 RMK A01 T00931074  RH  030%=      5-min Rain = 0
KOD1 092053Z 00002KT 09/M07 A3035 RMK A01 T00921072  RH  030%=      5-min Rain = 0
KOD1 092054Z 33001KT 09/M07 A3035 RMK A01 T00931067  RH  032%=      5-min Rain = 0
KOD1 092055Z 35005KT 10/M07 A3035 RMK A01 T00951066  RH  031%=      5-min Rain = 0
KOD1 092056Z 34006KT 10/M07 A3035 RMK A01 T00951070  RH  031%=      5-min Rain = 0
KOD1 092057Z 33005KT 10/M07 A3035 RMK A01 T00951069  RH  031%=      5-min Rain = 0
KOD1 092058Z 34003KT 10/M07 A3035 RMK A01 T00961071  RH  030%=      5-min Rain = 0
KOD1 092059Z 33004KT 10/M07 A3035 RMK A01 T00961071  RH  030%=      5-min Rain = 0
KOD1 092100Z 33005KT 10/M07 A3035 RMK A01 T00961072  RH  030%=      5-min Rain = 0
KOD1 092101Z 33003KT 10/M08 A3035 RMK A01 T00951075  RH  029%=      5-min Rain = 0
KOD1 092102Z 35003KT 09/M08 A3035 RMK A01 T00941076  RH  029%=      5-min Rain = 0
KOD1 092103Z 36003KT 09/M08 A3035 RMK A01 T00941075  RH  029%=      5-min Rain = 0
KOD1 092104Z 32004KT 09/M08 A3035 RMK A01 T00941076  RH  029%=      5-min Rain = 0
KOD1 092105Z 30003KT 09/M07 A3035 RMK A01 T00941073  RH  030%=      5-min Rain = 0
KOD1 092106Z 29004KT 10/M07 A3035 RMK A01 T00951074  RH  030%=      5-min Rain = 0
KOD1 092107Z 29004KT 10/M08 A3035 RMK A01 T00951076  RH  029%=      5-min Rain = 0
KOD1 092108Z 30003KT 10/M08 A3035 RMK A01 T00951075  RH  029%=      5-min Rain = 0
KOD1 092109Z 27004KT 10/M07 A3035 RMK A01 T00951074  RH  030%=      5-min Rain = 0
KOD1 092110Z 29004KT 10/M07 A3035 RMK A01 T00951074  RH  029%=      5-min Rain = 0
KOD1 092111Z 31003KT 10/M07 A3035 RMK A01 T00951073  RH  030%=      5-min Rain = 0
KOD1 092112Z 34003KT 10/M08 A3035 RMK A01 T00951075  RH  029%=      5-min Rain = 0
KOD1 092113Z 35004KT 10/M07 A3035 RMK A01 T00951074  RH  030%=      5-min Rain = 0
KOD1 092114Z 00004KT 09/M08 A3035 RMK A01 T00941075  RH  030%=      5-min Rain = 0
KOD1 092115Z 00002KT 09/M07 A3034 RMK A01 T00941071  RH  031%=      5-min Rain = 0
KOD1 092116Z 30000KT 09/M07 A3034 RMK A01 T00941072  RH  030%=      5-min Rain = 0
KOD1 092117Z 24001KT 10/M07 A3034 RMK A01 T00951070  RH  030%=      5-min Rain = 0
KOD1 092118Z 25001KT 10/M07 A3034 RMK A01 T00971073  RH  030%=      5-min Rain = 0
KOD1 092119Z 25000KT 10/M07 A3034 RMK A01 T00981072  RH  029%=      5-min Rain = 0
KOD1 092120Z 28002KT 10/M07 A3034 RMK A01 T00991074  RH  029%=      5-min Rain = 0
KOD1 092121Z 30004KT 10/M08 A3034 RMK A01 T00991075  RH  029%=      5-min Rain = 0
KOD1 092122Z 29002KT 10/M08 A3034 RMK A01 T00971077  RH  029%=      5-min Rain = 0
KOD1 092123Z 32001KT 10/M08 A3034 RMK A01 T00961077  RH  029%=      5-min Rain = 0
KOD1 092124Z 33002KT 10/M07 A3034 RMK A01 T00961074  RH  029%=      5-min Rain = 0
KOD1 092125Z 29001KT 10/M07 A3034 RMK A01 T00961074  RH  029%=      5-min Rain = 0
KOD1 092126Z 25001KT 10/M08 A3034 RMK A01 T00971075  RH  029%=      5-min Rain = 0
KOD1 092127Z 27003KT 10/M08 A3034 RMK A01 T00981075  RH  029%=      5-min Rain = 0
KOD1 092128Z 25001KT 10/M07 A3034 RMK A01 T00981071  RH  030%=      5-min Rain = 0
KOD1 092129Z 23001KT 10/M07 A3034 RMK A01 T00991073  RH  029%=      5-min Rain = 0
KOD1 092130Z 23001KT 10/M08 A3034 RMK A01 T00991077  RH  028%=      5-min Rain = 0
KOD1 092131Z 22000KT 10/M07 A3034 RMK A01 T01001074  RH  029%=      5-min Rain = 0
KOD1 092132Z 34000KT 10/M07 A3034 RMK A01 T01011074  RH  028%=      5-min Rain = 0
KOD1 092133Z 30002KT 10/M07 A3034 RMK A01 T01021073  RH  028%=      5-min Rain = 0
KOD1 092134Z 30003KT 10/M08 A3034 RMK A01 T01021075  RH  028%=      5-min Rain = 0
KOD1 092135Z 31002KT 10/M07 A3034 RMK A01 T01011072  RH  029%=      5-min Rain = 0
KOD1 092136Z 28001KT 10/M07 A3034 RMK A01 T01001071  RH  029%=      5-min Rain = 0
KOD1 092137Z 30001KT 10/M07 A3034 RMK A01 T01001070  RH  030%=      5-min Rain = 0
KOD1 092138Z 35003KT 10/M07 A3034 RMK A01 T01011069  RH  030%=      5-min Rain = 0
KOD1 092139Z 32005KT 10/M07 A3034 RMK A01 T01001070  RH  030%=      5-min Rain = 0
KOD1 092140Z 32004KT 10/M07 A3034 RMK A01 T00991069  RH  030%=      5-min Rain = 0
KOD1 092141Z 33003KT 10/M07 A3034 RMK A01 T00991070  RH  030%=      5-min Rain = 0
KOD1 092142Z 32003KT 10/M07 A3034 RMK A01 T00991068  RH  030%=      5-min Rain = 0
KOD1 092143Z 30003KT 10/M07 A3034 RMK A01 T00991068  RH  030%=      5-min Rain = 0
KOD1 092144Z 32005KT 10/M07 A3034 RMK A01 T01001067  RH  030%=      5-min Rain = 0
KOD1 092145Z 31006KT 10/M07 A3034 RMK A01 T00991068  RH  030%=      5-min Rain = 0
KOD1 092146Z 30004KT 10/M07 A3034 RMK A01 T00981069  RH  030%=      5-min Rain = 0
KOD1 092147Z 31006KT 10/M07 A3034 RMK A01 T00971067  RH  031%=      5-min Rain = 0
KOD1 092148Z 31003KT 10/M07 A3034 RMK A01 T00961070  RH  030%=      5-min Rain = 0
KOD1 092149Z 29004KT 10/M07 A3034 RMK A01 T00951070  RH  030%=      5-min Rain = 0
KOD1 092150Z 31003KT 10/M07 A3034 RMK A01 T00951068  RH  031%=      5-min Rain = 0
KOD1 092151Z 28003KT 10/M07 A3034 RMK A01 T00951068  RH  031%=      5-min Rain = 0
KOD1 092152Z 27004KT 10/M07 A3034 RMK A01 T00951071  RH  030%=      5-min Rain = 0
KOD1 092153Z 26004KT 10/M07 A3034 RMK A01 T00951068  RH  031%=      5-min Rain = 0
KOD1 092154Z 28006KT 10/M07 A3034 RMK A01 T00951067  RH  031%=      5-min Rain = 0
KOD1 092155Z 29005KT 09/M07 A3034 RMK A01 T00941070  RH  031%=      5-min Rain = 0
KOD1 092156Z 30002KT 09/M07 A3034 RMK A01 T00941068  RH  031%=      5-min Rain = 0
KOD1 092157Z 27002KT 10/M07 A3034 RMK A01 T00951066  RH  032%=      5-min Rain = 0
KOD1 092158Z 27004KT 10/M06 A3034 RMK A01 T00961064  RH  032%=      5-min Rain = 0
KOD1 092159Z 29006KT 10/M07 A3034 RMK A01 T00971065  RH  031%=      5-min Rain = 0
KOD1 092200Z 30005KT 10/M07 A3034 RMK A01 T00971065  RH  031%=      5-min Rain = 0
KOD1 092201Z 31005KT 10/M06 A3034 RMK A01 T00971064  RH  032%=      5-min Rain = 0
KOD1 092202Z 33005KT 10/M07 A3034 RMK A01 T00971070  RH  030%=      5-min Rain = 0
KOD1 092203Z 31004KT 10/M07 A3034 RMK A01 T00951068  RH  031%=      5-min Rain = 0
KOD1 092204Z 31006KT 10/M07 A3034 RMK A01 T00951069  RH  031%=      5-min Rain = 0
KOD1 092205Z 31006KT 09/M07 A3035 RMK A01 T00941068  RH  031%=      5-min Rain = 0
KOD1 092206Z 31005KT 09/M07 A3035 RMK A01 T00941068  RH  031%=      5-min Rain = 0
KOD1 092207Z 31005KT 09/M07 A3035 RMK A01 T00941073  RH  030%=      5-min Rain = 0
KOD1 092208Z 30003KT 09/M07 A3035 RMK A01 T00931072  RH  030%=      5-min Rain = 0
KOD1 092209Z 28003KT 09/M07 A3035 RMK A01 T00931071  RH  031%=      5-min Rain = 0
KOD1 092210Z 29004KT 09/M07 A3035 RMK A01 T00941070  RH  031%=      5-min Rain = 0
KOD1 092211Z 29006KT 09/M07 A3035 RMK A01 T00941070  RH  031%=      5-min Rain = 0
KOD1 092212Z 29007KT 09/M07 A3035 RMK A01 T00941071  RH  030%=      5-min Rain = 0
KOD1 092213Z 29006KT 09/M07 A3035 RMK A01 T00941074  RH  030%=      5-min Rain = 0
KOD1 092214Z 29005KT 09/M07 A3035 RMK A01 T00931073  RH  030%=      5-min Rain = 0
KOD1 092215Z 29004KT 09/M07 A3035 RMK A01 T00931070  RH  031%=      5-min Rain = 0
KOD1 092216Z 33006KT 09/M07 A3035 RMK A01 T00931071  RH  031%=      5-min Rain = 0
KOD1 092217Z 32005KT 09/M07 A3035 RMK A01 T00931074  RH  030%=      5-min Rain = 0
KOD1 092218Z 34005KT 09/M07 A3035 RMK A01 T00921074  RH  030%=      5-min Rain = 0
KOD1 092219Z 34005KT 09/M07 A3035 RMK A01 T00921073  RH  030%=      5-min Rain = 0
KOD1 092220Z 33003KT 09/M07 A3035 RMK A01 T00921073  RH  030%=      5-min Rain = 0
KOD1 092221Z 33004KT 09/M07 A3035 RMK A01 T00921070  RH  031%=      5-min Rain = 0
KOD1 092222Z 32005KT 09/M07 A3035 RMK A01 T00931073  RH  030%=      5-min Rain = 0
KOD1 092223Z 31004KT 09/M08 A3035 RMK A01 T00931075  RH  030%=      5-min Rain = 0
KOD1 092224Z 31004KT 09/M08 A3035 RMK A01 T00921078  RH  029%=      5-min Rain = 0
KOD1 092225Z 31003KT 09/M07 A3035 RMK A01 T00931074  RH  030%=      5-min Rain = 0
KOD1 092226Z 30002KT 09/M07 A3035 RMK A01 T00931073  RH  030%=      5-min Rain = 0
KOD1 092227Z 31004KT 09/M08 A3035 RMK A01 T00941075  RH  030%=      5-min Rain = 0
KOD1 092228Z 32004KT 09/M08 A3035 RMK A01 T00941078  RH  029%=      5-min Rain = 0
KOD1 092229Z 32004KT 09/M08 A3035 RMK A01 T00931079  RH  029%=      5-min Rain = 0
KOD1 092230Z 32004KT 09/M08 A3035 RMK A01 T00921076  RH  030%=      5-min Rain = 0
KOD1 092231Z 32005KT 09/M08 A3035 RMK A01 T00921076  RH  030%=      5-min Rain = 0
KOD1 092232Z 32004KT 09/M07 A3035 RMK A01 T00921073  RH  030%=      5-min Rain = 0
KOD1 092233Z 32004KT 09/M07 A3035 RMK A01 T00921071  RH  031%=      5-min Rain = 0
KOD1 092234Z 32005KT 09/M07 A3035 RMK A01 T00921074  RH  030%=      5-min Rain = 0
KOD1 092235Z 32005KT 09/M08 A3035 RMK A01 T00921077  RH  030%=      5-min Rain = 0
KOD1 092236Z 32004KT 09/M08 A3035 RMK A01 T00911077  RH  030%=      5-min Rain = 0
KOD1 092237Z 32004KT 09/M08 A3035 RMK A01 T00911076  RH  030%=      5-min Rain = 0
KOD1 092238Z 32004KT 09/M08 A3035 RMK A01 T00911076  RH  030%=      5-min Rain = 0
KOD1 092239Z 31004KT 09/M08 A3035 RMK A01 T00901077  RH  030%=      5-min Rain = 0
KOD1 092240Z 32004KT 09/M08 A3035 RMK A01 T00901075  RH  030%=      5-min Rain = 0
KOD1 092241Z 31003KT 09/M08 A3035 RMK A01 T00901076  RH  030%=      5-min Rain = 0
KOD1 092242Z 31003KT 09/M08 A3035 RMK A01 T00901076  RH  030%=      5-min Rain = 0
KOD1 092243Z 31004KT 09/M07 A3035 RMK A01 T00901074  RH  030%=      5-min Rain = 0
KOD1 092244Z 31004KT 09/M08 A3035 RMK A01 T00901076  RH  030%=      5-min Rain = 0
KOD1 092245Z 32003KT 09/M08 A3035 RMK A01 T00901075  RH  031%=      5-min Rain = 0
KOD1 092246Z 33003KT 09/M08 A3035 RMK A01 T00891075  RH  030%=      5-min Rain = 0
KOD1 092247Z 32003KT 09/M07 A3035 RMK A01 T00891073  RH  031%=      5-min Rain = 0
KOD1 092248Z 31003KT 09/M07 A3035 RMK A01 T00891071  RH  031%=      5-min Rain = 0
KOD1 092249Z 31003KT 09/M07 A3035 RMK A01 T00891071  RH  031%=      5-min Rain = 0
KOD1 092250Z 31003KT 09/M07 A3035 RMK A01 T00891071  RH  032%=      5-min Rain = 0
KOD1 092251Z 32003KT 09/M07 A3035 RMK A01 T00891069  RH  032%=      5-min Rain = 0
KOD1 092252Z 31004KT 09/M07 A3035 RMK A01 T00891068  RH  032%=      5-min Rain = 0
KOD1 092253Z 32004KT 09/M07 A3035 RMK A01 T00881069  RH  032%=      5-min Rain = 0
KOD1 092254Z 31004KT 09/M07 A3035 RMK A01 T00871069  RH  032%=      5-min Rain = 0
KOD1 092255Z 31004KT 09/M07 A3035 RMK A01 T00871070  RH  032%=      5-min Rain = 0
KOD1 092256Z 31004KT 09/M07 A3035 RMK A01 T00861067  RH  033%=      5-min Rain = 0
KOD1 092257Z 30004KT 09/M07 A3035 RMK A01 T00851065  RH  034%=      5-min Rain = 0
KOD1 092258Z 30005KT 08/M06 A3035 RMK A01 T00841063  RH  035%=      5-min Rain = 0
KOD1 092259Z 31005KT 08/M06 A3035 RMK A01 T00821062  RH  035%=      5-min Rain = 0
KOD1 092300Z 31005KT 08/M06 A3035 RMK A01 T00811061  RH  036%=      5-min Rain = 0
KOD1 092301Z 31005KT 08/M06 A3035 RMK A01 T00801061  RH  036%=      5-min Rain = 0
KOD1 092302Z 31005KT 08/M06 A3035 RMK A01 T00791061  RH  036%=      5-min Rain = 0
KOD1 092303Z 31005KT 08/M06 A3035 RMK A01 T00781061  RH  037%=      5-min Rain = 0
KOD1 092304Z 31005KT 08/M06 A3035 RMK A01 T00771061  RH  037%=      5-min Rain = 0
KOD1 092305Z 31005KT 08/M06 A3035 RMK A01 T00761061  RH  037%=      5-min Rain = 0
KOD1 092306Z 31005KT 08/M06 A3035 RMK A01 T00751062  RH  037%=      5-min Rain = 0
KOD1 092307Z 31005KT 07/M06 A3036 RMK A01 T00741062  RH  037%=      5-min Rain = 0
KOD1 092308Z 31005KT 07/M06 A3036 RMK A01 T00731063  RH  037%=      5-min Rain = 0
KOD1 092309Z 31005KT 07/M06 A3035 RMK A01 T00721063  RH  038%=      5-min Rain = 0
KOD1 092310Z 30005KT 07/M06 A3035 RMK A01 T00721063  RH  038%=      5-min Rain = 0
KOD1 092311Z 30005KT 07/M06 A3035 RMK A01 T00711063  RH  038%=      5-min Rain = 0
KOD1 092312Z 30005KT 07/M06 A3035 RMK A01 T00701064  RH  038%=      5-min Rain = 0
KOD1 092313Z 30005KT 07/M06 A3036 RMK A01 T00701063  RH  038%=      5-min Rain = 0
KOD1 092314Z 30005KT 07/M06 A3036 RMK A01 T00691063  RH  038%=      5-min Rain = 0
KOD1 092315Z 30005KT 07/M06 A3036 RMK A01 T00681063  RH  039%=      5-min Rain = 0
KOD1 092316Z 30005KT 07/M06 A3036 RMK A01 T00671063  RH  039%=      5-min Rain = 0
KOD1 092317Z 30005KT 07/M06 A3035 RMK A01 T00661063  RH  039%=      5-min Rain = 0
KOD1 092318Z 30005KT 07/M06 A3035 RMK A01 T00651063  RH  039%=      5-min Rain = 0
KOD1 092319Z 30005KT 07/M06 A3035 RMK A01 T00651063  RH  040%=      5-min Rain = 0
KOD1 092320Z 30005KT 06/M06 A3035 RMK A01 T00641063  RH  040%=      5-min Rain = 0
KOD1 092321Z 30005KT 06/M06 A3035 RMK A01 T00631063  RH  040%=      5-min Rain = 0
KOD1 092322Z 30004KT 06/M06 A3035 RMK A01 T00631064  RH  040%=      5-min Rain = 0
KOD1 092323Z 30004KT 06/M06 A3035 RMK A01 T00621064  RH  040%=      5-min Rain = 0
KOD1 092324Z 30004KT 06/M06 A3035 RMK A01 T00621064  RH  040%=      5-min Rain = 0
KOD1 092325Z 29004KT 06/M07 A3035 RMK A01 T00621065  RH  040%=      5-min Rain = 0
KOD1 092326Z 29004KT 06/M06 A3035 RMK A01 T00621064  RH  040%=      5-min Rain = 0
KOD1 092327Z 29004KT 06/M06 A3035 RMK A01 T00621064  RH  040%=      5-min Rain = 0
KOD1 092328Z 30004KT 06/M06 A3035 RMK A01 T00611064  RH  040%=      5-min Rain = 0
KOD1 092329Z 30004KT 06/M06 A3035 RMK A01 T00611064  RH  040%=      5-min Rain = 0
KOD1 092330Z 30004KT 06/M07 A3035 RMK A01 T00601065  RH  040%=      5-min Rain = 0
KOD1 092331Z 30004KT 06/M07 A3035 RMK A01 T00601065  RH  040%=      5-min Rain = 0
KOD1 092332Z 30004KT 06/M06 A3035 RMK A01 T00591064  RH  041%=      5-min Rain = 0
KOD1 092333Z 29003KT 06/M06 A3035 RMK A01 T00591064  RH  041%=      5-min Rain = 0
KOD1 092334Z 29003KT 06/M06 A3035 RMK A01 T00581064  RH  041%=      5-min Rain = 0
KOD1 092335Z 29004KT 06/M06 A3035 RMK A01 T00571063  RH  042%=      5-min Rain = 0
KOD1 092336Z 30004KT 06/M06 A3035 RMK A01 T00561063  RH  042%=      5-min Rain = 0
KOD1 092337Z 30004KT 06/M06 A3035 RMK A01 T00551062  RH  043%=      5-min Rain = 0
KOD1 092338Z 30004KT 05/M06 A3035 RMK A01 T00541062  RH  043%=      5-min Rain = 0
KOD1 092339Z 30004KT 05/M06 A3035 RMK A01 T00541061  RH  043%=      5-min Rain = 0
KOD1 092340Z 30004KT 05/M06 A3035 RMK A01 T00531061  RH  043%=      5-min Rain = 0
KOD1 092341Z 30004KT 05/M06 A3035 RMK A01 T00531061  RH  044%=      5-min Rain = 0
KOD1 092342Z 30004KT 05/M06 A3035 RMK A01 T00531061  RH  044%=      5-min Rain = 0
KOD1 092343Z 30004KT 05/M06 A3035 RMK A01 T00521062  RH  044%=      5-min Rain = 0
KOD1 092344Z 30004KT 05/M06 A3035 RMK A01 T00521062  RH  044%=      5-min Rain = 0
KOD1 092345Z 30004KT 05/M06 A3035 RMK A01 T00521062  RH  044%=      5-min Rain = 0
KOD1 092346Z 29004KT 05/M06 A3035 RMK A01 T00521062  RH  044%=      5-min Rain = 0
KOD1 092347Z 29004KT 05/M06 A3035 RMK A01 T00521062  RH  044%=      5-min Rain = 0
KOD1 092348Z 30004KT 05/M06 A3035 RMK A01 T00521062  RH  044%=      5-min Rain = 0
KOD1 092349Z 30004KT 05/M06 A3035 RMK A01 T00521062  RH  044%=      5-min Rain = 0
KOD1 092350Z 30003KT 05/M06 A3035 RMK A01 T00521063  RH  043%=      5-min Rain = 0
KOD1 092351Z 30003KT 05/M06 A3035 RMK A01 T00521063  RH  043%=      5-min Rain = 0
KOD1 092352Z 29003KT 05/M06 A3035 RMK A01 T00521063  RH  043%=      5-min Rain = 0
KOD1 092353Z 29003KT 05/M06 A3035 RMK A01 T00521062  RH  044%=      5-min Rain = 0
KOD1 092354Z 24002KT 05/M05 A3035 RMK A01 T00511052  RH  047%=      5-min Rain = 0
KOD1 092355Z 26002KT 05/M05 A3035 RMK A01 T00501047  RH  050%=      5-min Rain = 0
KOD1 092356Z 27002KT 05/M05 A3036 RMK A01 T00481049  RH  049%=      5-min Rain = 0
KOD1 092357Z 28003KT 05/M05 A3036 RMK A01 T00481050  RH  049%=      5-min Rain = 0
KOD1 092358Z 29003KT 05/M05 A3036 RMK A01 T00481051  RH  049%=      5-min Rain = 0
KOD1 092359Z 29002KT 05/M05 A3036 RMK A01 T00481052  RH  048%=      5-min Rain = 0
KOD1 100000Z 31002KT 05/M06 A3036 RMK A01 T00481056  RH  047%=      5-min Rain = 0
KOD1 100001Z 32003KT 05/M06 A3036 RMK A01 T00491060  RH  045%=      5-min Rain = 0
KOD1 100002Z 32003KT 05/M06 A3036 RMK A01 T00511061  RH  044%=      5-min Rain = 0
KOD1 100003Z 32003KT 05/M06 A3036 RMK A01 T00531062  RH  043%=      5-min Rain = 0
KOD1 100004Z 32002KT 05/M06 A3036 RMK A01 T00541062  RH  043%=      5-min Rain = 0
KOD1 100005Z 32002KT 05/M06 A3036 RMK A01 T00541062  RH  043%=      5-min Rain = 0
KOD1 100006Z 32003KT 05/M06 A3036 RMK A01 T00541062  RH  043%=      5-min Rain = 0
KOD1 100007Z 32003KT 05/M06 A3036 RMK A01 T00531062  RH  043%=      5-min Rain = 0
KOD1 100008Z 31003KT 05/M06 A3036 RMK A01 T00531063  RH  043%=      5-min Rain = 0
KOD1 100009Z 31003KT 05/M06 A3036 RMK A01 T00521063  RH  043%=      5-min Rain = 0
KOD1 100010Z 30003KT 05/M06 A3036 RMK A01 T00521064  RH  043%=      5-min Rain = 0
KOD1 100011Z 30003KT 05/M06 A3036 RMK A01 T00521064  RH  043%=      5-min Rain = 0
KOD1 100012Z 30003KT 05/M07 A3036 RMK A01 T00521065  RH  043%=      5-min Rain = 0
KOD1 100013Z 30003KT 05/M07 A3036 RMK A01 T00521065  RH  042%=      5-min Rain = 0
KOD1 100014Z 30003KT 05/M07 A3036 RMK A01 T00531066  RH  042%=      5-min Rain = 0
KOD1 100015Z 30003KT 05/M07 A3036 RMK A01 T00531066  RH  042%=      5-min Rain = 0
KOD1 100016Z 30003KT 05/M07 A3036 RMK A01 T00541066  RH  042%=      5-min Rain = 0
KOD1 100017Z 31003KT 05/M07 A3036 RMK A01 T00541066  RH  042%=      5-min Rain = 0
KOD1 100018Z 31003KT 05/M07 A3036 RMK A01 T00541066  RH  042%=      5-min Rain = 0
KOD1 100019Z 31003KT 05/M07 A3036 RMK A01 T00531066  RH  042%=      5-min Rain = 0
KOD1 100020Z 31003KT 05/M07 A3035 RMK A01 T00531066  RH  042%=      5-min Rain = 0
KOD1 100021Z 31002KT 05/M07 A3035 RMK A01 T00531066  RH  042%=      5-min Rain = 0
KOD1 100022Z 31002KT 05/M07 A3035 RMK A01 T00531067  RH  042%=      5-min Rain = 0
KOD1 100023Z 30002KT 05/M07 A3035 RMK A01 T00521067  RH  042%=      5-min Rain = 0
KOD1 100024Z 28002KT 05/M07 A3035 RMK A01 T00511067  RH  042%=      5-min Rain = 0
KOD1 100025Z 27002KT 05/M07 A3035 RMK A01 T00511067  RH  042%=      5-min Rain = 0
KOD1 100026Z 27002KT 05/M06 A3035 RMK A01 T00491061  RH  045%=      5-min Rain = 0
KOD1 100027Z 27002KT 05/M05 A3035 RMK A01 T00461051  RH  049%=      5-min Rain = 0
KOD1 100028Z 27001KT 04/M05 A3035 RMK A01 T00431049  RH  051%=      5-min Rain = 0
KOD1 100029Z 27001KT 04/M05 A3035 RMK A01 T00411051  RH  051%=      5-min Rain = 0
KOD1 100030Z 27001KT 04/M05 A3035 RMK A01 T00411049  RH  052%=      5-min Rain = 0
KOD1 100031Z 27001KT 04/M05 A3035 RMK A01 T00401047  RH  053%=      5-min Rain = 0
KOD1 100032Z 27001KT 04/M05 A3035 RMK A01 T00401045  RH  054%=      5-min Rain = 0
KOD1 100033Z 27001KT 04/M04 A3035 RMK A01 T00391042  RH  055%=      5-min Rain = 0
KOD1 100034Z 27001KT 04/M04 A3035 RMK A01 T00371040  RH  057%=      5-min Rain = 0
KOD1 100035Z 27001KT 04/M04 A3035 RMK A01 T00361039  RH  058%=      5-min Rain = 0
KOD1 100036Z 27001KT 04/M04 A3035 RMK A01 T00351039  RH  058%=      5-min Rain = 0
KOD1 100037Z 27001KT 03/M04 A3035 RMK A01 T00341039  RH  059%=      5-min Rain = 0
KOD1 100038Z 26001KT 03/M04 A3035 RMK A01 T00341039  RH  059%=      5-min Rain = 0
KOD1 100039Z 25001KT 03/M04 A3035 RMK A01 T00331039  RH  059%=      5-min Rain = 0
KOD1 100040Z 25001KT 03/M04 A3035 RMK A01 T00341040  RH  059%=      5-min Rain = 0
KOD1 100041Z 25002KT 03/M04 A3035 RMK A01 T00341039  RH  059%=      5-min Rain = 0
KOD1 100042Z 23002KT 03/M04 A3035 RMK A01 T00341038  RH  060%=      5-min Rain = 0
KOD1 100043Z 21002KT 03/M04 A3035 RMK A01 T00341037  RH  060%=      5-min Rain = 0
KOD1 100044Z 21002KT 03/M03 A3035 RMK A01 T00331032  RH  062%=      5-min Rain = 0
KOD1 100045Z 21002KT 03/M03 A3035 RMK A01 T00331028  RH  064%=      5-min Rain = 0
KOD1 100046Z 20002KT 03/M03 A3035 RMK A01 T00311026  RH  066%=      5-min Rain = 0
KOD1 100047Z 20003KT 03/M02 A3035 RMK A01 T00301024  RH  068%=      5-min Rain = 0
KOD1 100048Z 20003KT 03/M02 A3035 RMK A01 T00281024  RH  068%=      5-min Rain = 0
KOD1 100049Z 21003KT 03/M02 A3035 RMK A01 T00271024  RH  069%=      5-min Rain = 0
KOD1 100050Z 21003KT 03/M02 A3035 RMK A01 T00261023  RH  070%=      5-min Rain = 0
KOD1 100051Z 21003KT 03/M02 A3035 RMK A01 T00251023  RH  071%=      5-min Rain = 0
KOD1 100052Z 21002KT 03/M02 A3035 RMK A01 T00251023  RH  071%=      5-min Rain = 0
KOD1 100053Z 21002KT 02/M02 A3035 RMK A01 T00241023  RH  071%=      5-min Rain = 0
KOD1 100054Z 21002KT 02/M02 A3035 RMK A01 T00231023  RH  072%=      5-min Rain = 0
KOD1 100055Z 22002KT 02/M02 A3035 RMK A01 T00231023  RH  072%=      5-min Rain = 0
KOD1 100056Z 22003KT 02/M02 A3035 RMK A01 T00231023  RH  072%=      5-min Rain = 0
KOD1 100057Z 22003KT 02/M02 A3035 RMK A01 T00221024  RH  072%=      5-min Rain = 0
KOD1 100058Z 22003KT 02/M02 A3035 RMK A01 T00221024  RH  071%=      5-min Rain = 0
KOD1 100059Z 22004KT 02/M03 A3035 RMK A01 T00221025  RH  071%=      5-min Rain = 0
KOD1 100100Z 22004KT 02/M03 A3035 RMK A01 T00231026  RH  070%=      5-min Rain = 0
KOD1 100101Z 22004KT 02/M03 A3035 RMK A01 T00231028  RH  069%=      5-min Rain = 0
KOD1 100102Z 22004KT 02/M03 A3035 RMK A01 T00231028  RH  069%=      5-min Rain = 0
KOD1 100103Z 22004KT 02/M03 A3035 RMK A01 T00241028  RH  068%=      5-min Rain = 0
KOD1 100104Z 21004KT 02/M03 A3035 RMK A01 T00241027  RH  069%=      5-min Rain = 0
KOD1 100105Z 21005KT 02/M03 A3035 RMK A01 T00241027  RH  069%=      5-min Rain = 0
KOD1 100106Z 21004KT 02/M03 A3035 RMK A01 T00241027  RH  069%=      5-min Rain = 0
KOD1 100107Z 21004KT 02/M03 A3035 RMK A01 T00241027  RH  069%=      5-min Rain = 0
KOD1 100108Z 22004KT 02/M03 A3035 RMK A01 T00241027  RH  069%=      5-min Rain = 0
KOD1 100109Z 22004KT 02/M03 A3035 RMK A01 T00231027  RH  069%=      5-min Rain = 0
KOD1 100110Z 22004KT 02/M03 A3035 RMK A01 T00231027  RH  070%=      5-min Rain = 0
KOD1 100111Z 22004KT 02/M03 A3035 RMK A01 T00221028  RH  069%=      5-min Rain = 0
KOD1 100112Z 23004KT 02/M03 A3035 RMK A01 T00221028  RH  069%=      5-min Rain = 0
KOD1 100113Z 23004KT 02/M03 A3035 RMK A01 T00221028  RH  069%=      5-min Rain = 0
KOD1 100114Z 23004KT 02/M03 A3035 RMK A01 T00211029  RH  069%=      5-min Rain = 0
KOD1 100115Z 23004KT 02/M03 A3035 RMK A01 T00211030  RH  069%=      5-min Rain = 0
KOD1 100116Z 22004KT 02/M03 A3035 RMK A01 T00211031  RH  069%=      5-min Rain = 0
KOD1 100117Z 22004KT 02/M03 A3035 RMK A01 T00211031  RH  068%=      5-min Rain = 0
KOD1 100118Z 22005KT 02/M03 A3035 RMK A01 T00211032  RH  068%=      5-min Rain = 0
KOD1 100119Z 22004KT 02/M03 A3035 RMK A01 T00211033  RH  067%=      5-min Rain = 0
KOD1 100120Z 22004KT 02/M03 A3035 RMK A01 T00221033  RH  067%=      5-min Rain = 0
KOD1 100121Z 23004KT 02/M03 A3035 RMK A01 T00221034  RH  067%=      5-min Rain = 0
KOD1 100122Z 23004KT 02/M03 A3035 RMK A01 T00211034  RH  067%=      5-min Rain = 0
KOD1 100123Z 23004KT 02/M04 A3035 RMK A01 T00211035  RH  066%=      5-min Rain = 0
KOD1 100124Z 23004KT 02/M04 A3036 RMK A01 T00211035  RH  066%=      5-min Rain = 0
KOD1 100125Z 23004KT 02/M04 A3036 RMK A01 T00211035  RH  066%=      5-min Rain = 0
KOD1 100126Z 23004KT 02/M04 A3036 RMK A01 T00211036  RH  066%=      5-min Rain = 0
KOD1 100127Z 23004KT 02/M04 A3036 RMK A01 T00211036  RH  066%=      5-min Rain = 0
KOD1 100128Z 23004KT 02/M04 A3036 RMK A01 T00221036  RH  066%=      5-min Rain = 0
KOD1 100129Z 23004KT 02/M04 A3036 RMK A01 T00221036  RH  065%=      5-min Rain = 0
KOD1 100130Z 23004KT 02/M04 A3036 RMK A01 T00231036  RH  065%=      5-min Rain = 0
KOD1 100131Z 23004KT 02/M04 A3036 RMK A01 T00231037  RH  064%=      5-min Rain = 0
KOD1 100132Z 23004KT 02/M04 A3036 RMK A01 T00241037  RH  064%=      5-min Rain = 0
KOD1 100133Z 23004KT 03/M04 A3036 RMK A01 T00251038  RH  063%=      5-min Rain = 0
KOD1 100134Z 23004KT 03/M04 A3036 RMK A01 T00261038  RH  063%=      5-min Rain = 0
KOD1 100135Z 24004KT 03/M04 A3036 RMK A01 T00261038  RH  062%=      5-min Rain = 0
KOD1 100136Z 24004KT 03/M04 A3036 RMK A01 T00271039  RH  062%=      5-min Rain = 0
KOD1 100137Z 24004KT 03/M04 A3036 RMK A01 T00271039  RH  062%=      5-min Rain = 0
KOD1 100138Z 24004KT 03/M04 A3036 RMK A01 T00271039  RH  062%=      5-min Rain = 0
KOD1 100139Z 24004KT 03/M04 A3036 RMK A01 T00271039  RH  062%=      5-min Rain = 0
KOD1 100140Z 24004KT 03/M04 A3036 RMK A01 T00271040  RH  061%=      5-min Rain = 0
KOD1 100141Z 24005KT 03/M04 A3036 RMK A01 T00271039  RH  062%=      5-min Rain = 0
KOD1 100142Z 24004KT 03/M04 A3037 RMK A01 T00261037  RH  063%=      5-min Rain = 0
KOD1 100143Z 24004KT 03/M04 A3037 RMK A01 T00261037  RH  063%=      5-min Rain = 0
KOD1 100144Z 24004KT 03/M04 A3037 RMK A01 T00251035  RH  065%=      5-min Rain = 0
KOD1 100145Z 24005KT 02/M03 A3037 RMK A01 T00231033  RH  066%=      5-min Rain = 0
KOD1 100146Z 24004KT 02/M03 A3037 RMK A01 T00211034  RH  067%=      5-min Rain = 0
KOD1 100147Z 24005KT 02/M03 A3037 RMK A01 T00201034  RH  067%=      5-min Rain = 0
KOD1 100148Z 23005KT 02/M04 A3037 RMK A01 T00191035  RH  068%=      5-min Rain = 0
KOD1 100149Z 23005KT 02/M03 A3036 RMK A01 T00181034  RH  068%=      5-min Rain = 0
KOD1 100150Z 23005KT 02/M03 A3036 RMK A01 T00171033  RH  069%=      5-min Rain = 0
KOD1 100151Z 23005KT 02/M03 A3036 RMK A01 T00161032  RH  070%=      5-min Rain = 0
KOD1 100152Z 23005KT 02/M03 A3036 RMK A01 T00151032  RH  071%=      5-min Rain = 0
KOD1 100153Z 23005KT 01/M03 A3036 RMK A01 T00131031  RH  072%=      5-min Rain = 0
KOD1 100154Z 23005KT 01/M03 A3036 RMK A01 T00121031  RH  073%=      5-min Rain = 0
KOD1 100155Z 23005KT 01/M03 A3036 RMK A01 T00111031  RH  074%=      5-min Rain = 0
KOD1 100156Z 23005KT 01/M03 A3036 RMK A01 T00101031  RH  074%=      5-min Rain = 0
KOD1 100157Z 23006KT 01/M03 A3036 RMK A01 T00091030  RH  075%=      5-min Rain = 0
KOD1 100158Z 23006KT 01/M03 A3036 RMK A01 T00091030  RH  075%=      5-min Rain = 0
KOD1 100159Z 23006KT 01/M03 A3036 RMK A01 T00091030  RH  076%=      5-min Rain = 0
KOD1 100200Z 23006KT 01/M03 A3036 RMK A01 T00081030  RH  076%=      5-min Rain = 0
KOD1 100201Z 23005KT 01/M03 A3036 RMK A01 T00081030  RH  075%=      5-min Rain = 0
KOD1 100202Z 23005KT 01/M03 A3037 RMK A01 T00081031  RH  075%=      5-min Rain = 0
KOD1 100203Z 23005KT 01/M03 A3037 RMK A01 T00071032  RH  075%=      5-min Rain = 0
KOD1 100204Z 23005KT 01/M03 A3037 RMK A01 T00071032  RH  075%=      5-min Rain = 0
KOD1 100205Z 23005KT 01/M03 A3037 RMK A01 T00071033  RH  075%=      5-min Rain = 0
KOD1 100206Z 23004KT 01/M03 A3037 RMK A01 T00071033  RH  074%=      5-min Rain = 0
KOD1 100207Z 23005KT 01/M03 A3037 RMK A01 T00071033  RH  074%=      5-min Rain = 0
KOD1 100208Z 23005KT 01/M03 A3037 RMK A01 T00071033  RH  074%=      5-min Rain = 0
KOD1 100209Z 23005KT 01/M03 A3037 RMK A01 T00071033  RH  075%=      5-min Rain = 0
KOD1 100210Z 23005KT 01/M03 A3037 RMK A01 T00071033  RH  075%=      5-min Rain = 0
KOD1 100211Z 23005KT 01/M03 A3037 RMK A01 T00071033  RH  075%=      5-min Rain = 0
KOD1 100212Z 23005KT 01/M04 A3037 RMK A01 T00061035  RH  074%=      5-min Rain = 0
KOD1 100213Z 23005KT 01/M04 A3037 RMK A01 T00061035  RH  074%=      5-min Rain = 0
KOD1 100214Z 23006KT 01/M03 A3037 RMK A01 T00051034  RH  075%=      5-min Rain = 0
KOD1 100215Z 23006KT 01/M03 A3037 RMK A01 T00051032  RH  076%=      5-min Rain = 0
KOD1 100216Z 23006KT 00/M03 A3037 RMK A01 T00041031  RH  077%=      5-min Rain = 0
KOD1 100217Z 22005KT 00/M03 A3037 RMK A01 T00041030  RH  078%=      5-min Rain = 0
KOD1 100218Z 22005KT 00/M03 A3037 RMK A01 T00041030  RH  078%=      5-min Rain = 0
KOD1 100219Z 22005KT 00/M03 A3037 RMK A01 T00041029  RH  078%=      5-min Rain = 0
KOD1 100220Z 22005KT 01/M03 A3037 RMK A01 T00051029  RH  078%=      5-min Rain = 0
KOD1 100221Z 22005KT 01/M03 A3036 RMK A01 T00051029  RH  078%=      5-min Rain = 0
KOD1 100222Z 22006KT 01/M03 A3036 RMK A01 T00051029  RH  078%=      5-min Rain = 0
KOD1 100223Z 22006KT 01/M03 A3036 RMK A01 T00061029  RH  077%=      5-min Rain = 0
KOD1 100224Z 21006KT 01/M03 A3036 RMK A01 T00061030  RH  077%=      5-min Rain = 0
KOD1 100225Z 21006KT 01/M03 A3036 RMK A01 T00071029  RH  077%=      5-min Rain = 0
KOD1 100226Z 21006KT 01/M03 A3036 RMK A01 T00081029  RH  076%=      5-min Rain = 0
KOD1 100227Z 22006KT 01/M03 A3036 RMK A01 T00081029  RH  076%=      5-min Rain = 0
KOD1 100228Z 21005KT 01/M03 A3036 RMK A01 T00091029  RH  076%=      5-min Rain = 0
KOD1 100229Z 21005KT 01/M03 A3036 RMK A01 T00101029  RH  075%=      5-min Rain = 0
KOD1 100230Z 21006KT 01/M03 A3036 RMK A01 T00101029  RH  075%=      5-min Rain = 0
KOD1 100231Z 22006KT 01/M03 A3036 RMK A01 T00101029  RH  075%=      5-min Rain = 0
KOD1 100232Z 22006KT 01/M03 A3036 RMK A01 T00101030  RH  074%=      5-min Rain = 0
KOD1 100233Z 22006KT 01/M03 A3036 RMK A01 T00101031  RH  074%=      5-min Rain = 0
KOD1 100234Z 22006KT 01/M03 A3036 RMK A01 T00101031  RH  074%=      5-min Rain = 0
KOD1 100235Z 22006KT 01/M03 A3036 RMK A01 T00101031  RH  074%=      5-min Rain = 0
KOD1 100236Z 22006KT 01/M03 A3036 RMK A01 T00101031  RH  074%=      5-min Rain = 0
KOD1 100237Z 22006KT 01/M03 A3036 RMK A01 T00101032  RH  074%=      5-min Rain = 0
KOD1 100238Z 22006KT 01/M03 A3036 RMK A01 T00101032  RH  074%=      5-min Rain = 0
KOD1 100239Z 22006KT 01/M03 A3036 RMK A01 T00091032  RH  074%=      5-min Rain = 0
KOD1 100240Z 22006KT 01/M03 A3036 RMK A01 T00091031  RH  074%=      5-min Rain = 0
KOD1 100241Z 22006KT 01/M03 A3036 RMK A01 T00091031  RH  075%=      5-min Rain = 0
KOD1 100242Z 22006KT 01/M03 A3036 RMK A01 T00091031  RH  075%=      5-min Rain = 0
KOD1 100243Z 22006KT 01/M03 A3036 RMK A01 T00081031  RH  075%=      5-min Rain = 0
KOD1 100244Z 22006KT 01/M03 A3036 RMK A01 T00081031  RH  075%=      5-min Rain = 0
KOD1 100245Z 22006KT 01/M03 A3036 RMK A01 T00071030  RH  076%=      5-min Rain = 0
KOD1 100246Z 22006KT 01/M03 A3036 RMK A01 T00071030  RH  076%=      5-min Rain = 0
KOD1 100247Z 22006KT 01/M03 A3036 RMK A01 T00071030  RH  076%=      5-min Rain = 0
KOD1 100248Z 21006KT 01/M03 A3036 RMK A01 T00071030  RH  077%=      5-min Rain = 0
KOD1 100249Z 21006KT 01/M03 A3036 RMK A01 T00071030  RH  077%=      5-min Rain = 0
KOD1 100250Z 21006KT 01/M03 A3036 RMK A01 T00071030  RH  077%=      5-min Rain = 0
KOD1 100251Z 21006KT 01/M03 A3036 RMK A01 T00071030  RH  077%=      5-min Rain = 0
KOD1 100252Z 21006KT 01/M03 A3036 RMK A01 T00071030  RH  077%=      5-min Rain = 0
KOD1 100253Z 21005KT 01/M03 A3036 RMK A01 T00071030  RH  076%=      5-min Rain = 0
KOD1 100254Z 21006KT 01/M03 A3036 RMK A01 T00071030  RH  076%=      5-min Rain = 0
KOD1 100255Z 21005KT 01/M03 A3036 RMK A01 T00071030  RH  076%=      5-min Rain = 0
KOD1 100256Z 22006KT 01/M03 A3036 RMK A01 T00071030  RH  076%=      5-min Rain = 0
KOD1 100257Z 22006KT 01/M03 A3037 RMK A01 T00081030  RH  076%=      5-min Rain = 0
KOD1 100258Z 22006KT 01/M03 A3037 RMK A01 T00081030  RH  076%=      5-min Rain = 0
KOD1 100259Z 22006KT 01/M03 A3037 RMK A01 T00081030  RH  076%=      5-min Rain = 0
KOD1 100300Z 22006KT 01/M03 A3037 RMK A01 T00081030  RH  076%=      5-min Rain = 0
KOD1 100301Z 21006KT 01/M03 A3037 RMK A01 T00081031  RH  076%=      5-min Rain = 0
KOD1 100302Z 21006KT 01/M03 A3036 RMK A01 T00071031  RH  076%=      5-min Rain = 0
KOD1 100303Z 21006KT 01/M03 A3036 RMK A01 T00071031  RH  076%=      5-min Rain = 0
KOD1 100304Z 20006KT 01/M03 A3036 RMK A01 T00071030  RH  076%=      5-min Rain = 0
KOD1 100305Z 20005KT 01/M03 A3036 RMK A01 T00071030  RH  076%=      5-min Rain = 0
KOD1 100306Z 20005KT 01/M03 A3036 RMK A01 T00071030  RH  077%=      5-min Rain = 0
KOD1 100307Z 20005KT 01/M03 A3036 RMK A01 T00071030  RH  076%=      5-min Rain = 0
KOD1 100308Z 20005KT 01/M03 A3036 RMK A01 T00071030  RH  076%=      5-min Rain = 0
KOD1 100309Z 20005KT 01/M03 A3036 RMK A01 T00071030  RH  076%=      5-min Rain = 0
KOD1 100310Z 21005KT 01/M03 A3036 RMK A01 T00071030  RH  076%=      5-min Rain = 0
KOD1 100311Z 21005KT 01/M03 A3036 RMK A01 T00081030  RH  076%=      5-min Rain = 0
KOD1 100312Z 21005KT 01/M03 A3036 RMK A01 T00081031  RH  075%=      5-min Rain = 0
KOD1 100313Z 21005KT 01/M03 A3036 RMK A01 T00091032  RH  075%=      5-min Rain = 0
KOD1 100314Z 21005KT 01/M03 A3036 RMK A01 T00091032  RH  074%=      5-min Rain = 0
KOD1 100315Z 21005KT 01/M03 A3036 RMK A01 T00101033  RH  073%=      5-min Rain = 0
KOD1 100316Z 21005KT 01/M03 A3036 RMK A01 T00111034  RH  072%=      5-min Rain = 0
KOD1 100317Z 21005KT 01/M03 A3036 RMK A01 T00121034  RH  071%=      5-min Rain = 0
KOD1 100318Z 21005KT 01/M04 A3036 RMK A01 T00131035  RH  071%=      5-min Rain = 0
KOD1 100319Z 21005KT 01/M04 A3036 RMK A01 T00131035  RH  070%=      5-min Rain = 0
KOD1 100320Z 21005KT 01/M04 A3036 RMK A01 T00131035  RH  070%=      5-min Rain = 0
KOD1 100321Z 21005KT 01/M03 A3036 RMK A01 T00131034  RH  070%=      5-min Rain = 0
KOD1 100322Z 21005KT 01/M03 A3036 RMK A01 T00131034  RH  071%=      5-min Rain = 0
KOD1 100323Z 21005KT 01/M04 A3036 RMK A01 T00131035  RH  070%=      5-min Rain = 0
KOD1 100324Z 21005KT 01/M04 A3036 RMK A01 T00131035  RH  070%=      5-min Rain = 0
KOD1 100325Z 22005KT 01/M04 A3036 RMK A01 T00131035  RH  070%=      5-min Rain = 0
KOD1 100326Z 22005KT 01/M04 A3036 RMK A01 T00131036  RH  070%=      5-min Rain = 0
KOD1 100327Z 22005KT 01/M04 A3037 RMK A01 T00131036  RH  070%=      5-min Rain = 0
KOD1 100328Z 23005KT 01/M04 A3037 RMK A01 T00131037  RH  069%=      5-min Rain = 0
KOD1 100329Z 23005KT 01/M04 A3037 RMK A01 T00121039  RH  069%=      5-min Rain = 0
KOD1 100330Z 23005KT 01/M04 A3037 RMK A01 T00111039  RH  069%=      5-min Rain = 0
KOD1 100331Z 24005KT 01/M04 A3037 RMK A01 T00101038  RH  070%=      5-min Rain = 0
KOD1 100332Z 24006KT 01/M04 A3037 RMK A01 T00091038  RH  071%=      5-min Rain = 0
KOD1 100333Z 24005KT 01/M04 A3037 RMK A01 T00081037  RH  072%=      5-min Rain = 0
KOD1 100334Z 24005KT 01/M04 A3037 RMK A01 T00071037  RH  072%=      5-min Rain = 0
KOD1 100335Z 24005KT 01/M04 A3037 RMK A01 T00061036  RH  073%=      5-min Rain = 0
KOD1 100336Z 24004KT 01/M04 A3037 RMK A01 T00061036  RH  074%=      5-min Rain = 0
KOD1 100337Z 24004KT 01/M04 A3037 RMK A01 T00051036  RH  074%=      5-min Rain = 0
KOD1 100338Z 24004KT 01/M04 A3037 RMK A01 T00051036  RH  074%=      5-min Rain = 0
KOD1 100339Z 23004KT 00/M04 A3037 RMK A01 T00041036  RH  074%=      5-min Rain = 0
KOD1 100340Z 23004KT 00/M04 A3037 RMK A01 T00041036  RH  074%=      5-min Rain = 0
KOD1 100341Z 24004KT 00/M04 A3037 RMK A01 T00041036  RH  075%=      5-min Rain = 0
KOD1 100342Z 24004KT 00/M04 A3037 RMK A01 T00041036  RH  075%=      5-min Rain = 0
KOD1 100343Z 24004KT 00/M04 A3037 RMK A01 T00041036  RH  075%=      5-min Rain = 0
KOD1 100344Z 24004KT 00/M04 A3037 RMK A01 T00031036  RH  075%=      5-min Rain = 0
KOD1 100345Z 24003KT 00/M04 A3037 RMK A01 T00041037  RH  074%=      5-min Rain = 0
KOD1 100346Z 24004KT 00/M04 A3037 RMK A01 T00041037  RH  074%=      5-min Rain = 0
KOD1 100347Z 24004KT 00/M04 A3037 RMK A01 T00041038  RH  073%=      5-min Rain = 0
KOD1 100348Z 24004KT 01/M04 A3037 RMK A01 T00051039  RH  073%=      5-min Rain = 0
KOD1 100349Z 23004KT 01/M04 A3037 RMK A01 T00051038  RH  073%=      5-min Rain = 0
KOD1 100350Z 23004KT 01/M04 A3037 RMK A01 T00061038  RH  073%=      5-min Rain = 0
KOD1 100351Z 23004KT 01/M04 A3037 RMK A01 T00061037  RH  073%=      5-min Rain = 0
KOD1 100352Z 23005KT 01/M04 A3037 RMK A01 T00061037  RH  073%=      5-min Rain = 0
KOD1 100353Z 23005KT 01/M04 A3037 RMK A01 T00051037  RH  073%=      5-min Rain = 0
KOD1 100354Z 23004KT 01/M04 A3037 RMK A01 T00051036  RH  074%=      5-min Rain = 0
KOD1 100355Z 23004KT 01/M04 A3037 RMK A01 T00051036  RH  074%=      5-min Rain = 0
KOD1 100356Z 23004KT 00/M04 A3037 RMK A01 T00041036  RH  075%=      5-min Rain = 0
KOD1 100357Z 23004KT 00/M04 A3037 RMK A01 T00041035  RH  075%=      5-min Rain = 0
KOD1 100358Z 22004KT 00/M04 A3037 RMK A01 T00041035  RH  075%=      5-min Rain = 0
KOD1 100359Z 22004KT 00/M04 A3037 RMK A01 T00041035  RH  075%=      5-min Rain = 0
KOD1 100400Z 22004KT 00/M04 A3037 RMK A01 T00031035  RH  076%=      5-min Rain = 0
KOD1 100401Z 22004KT 00/M03 A3037 RMK A01 T00031034  RH  076%=      5-min Rain = 0
KOD1 100402Z 22004KT 00/M03 A3037 RMK A01 T00031034  RH  076%=      5-min Rain = 0
KOD1 100403Z 22004KT 00/M03 A3037 RMK A01 T00031033  RH  077%=      5-min Rain = 0
KOD1 100404Z 22004KT 00/M03 A3037 RMK A01 T00031032  RH  077%=      5-min Rain = 0
KOD1 100405Z 23004KT 00/M03 A3037 RMK A01 T00031031  RH  078%=      5-min Rain = 0
KOD1 100406Z 23004KT 00/M03 A3037 RMK A01 T00041030  RH  078%=      5-min Rain = 0
KOD1 100407Z 22004KT 00/M03 A3037 RMK A01 T00041030  RH  078%=      5-min Rain = 0
KOD1 100408Z 22004KT 01/M03 A3037 RMK A01 T00051029  RH  078%=      5-min Rain = 0
KOD1 100409Z 23004KT 01/M03 A3037 RMK A01 T00051028  RH  078%=      5-min Rain = 0
KOD1 100410Z 23004KT 01/M03 A3037 RMK A01 T00051028  RH  078%=      5-min Rain = 0
KOD1 100411Z 23004KT 01/M03 A3037 RMK A01 T00061029  RH  078%=      5-min Rain = 0
KOD1 100412Z 23004KT 01/M03 A3037 RMK A01 T00061029  RH  078%=      5-min Rain = 0
KOD1 100413Z 23004KT 01/M03 A3037 RMK A01 T00061029  RH  078%=      5-min Rain = 0
KOD1 100414Z 23004KT 01/M03 A3037 RMK A01 T00061029  RH  078%=      5-min Rain = 0
KOD1 100415Z 24005KT 01/M03 A3037 RMK A01 T00061029  RH  078%=      5-min Rain = 0
KOD1 100416Z 23005KT 01/M03 A3037 RMK A01 T00061029  RH  078%=      5-min Rain = 0
KOD1 100417Z 24004KT 01/M03 A3037 RMK A01 T00051029  RH  078%=      5-min Rain = 0
KOD1 100418Z 24004KT 01/M03 A3037 RMK A01 T00051030  RH  078%=      5-min Rain = 0
KOD1 100419Z 24004KT 01/M03 A3037 RMK A01 T00051030  RH  078%=      5-min Rain = 0
KOD1 100420Z 24004KT 00/M03 A3037 RMK A01 T00041030  RH  078%=      5-min Rain = 0
KOD1 100421Z 23004KT 00/M03 A3037 RMK A01 T00041030  RH  078%=      5-min Rain = 0
KOD1 100422Z 24004KT 00/M03 A3037 RMK A01 T00041029  RH  078%=      5-min Rain = 0
KOD1 100423Z 24004KT 00/M03 A3037 RMK A01 T00041029  RH  079%=      5-min Rain = 0
KOD1 100424Z 23004KT 00/M03 A3036 RMK A01 T00041029  RH  079%=      5-min Rain = 0
KOD1 100425Z 23004KT 00/M03 A3036 RMK A01 T00041029  RH  079%=      5-min Rain = 0
KOD1 100426Z 23004KT 00/M03 A3036 RMK A01 T00041029  RH  079%=      5-min Rain = 0
KOD1 100427Z 23005KT 00/M03 A3036 RMK A01 T00041029  RH  078%=      5-min Rain = 0
KOD1 100428Z 23005KT 00/M03 A3036 RMK A01 T00041030  RH  078%=      5-min Rain = 0
KOD1 100429Z 23005KT 00/M03 A3036 RMK A01 T00041029  RH  078%=      5-min Rain = 0
KOD1 100430Z 23005KT 00/M03 A3036 RMK A01 T00041029  RH  079%=      5-min Rain = 0
KOD1 100431Z 23005KT 00/M03 A3036 RMK A01 T00041029  RH  078%=      5-min Rain = 0
KOD1 100432Z 22004KT 00/M03 A3036 RMK A01 T00041030  RH  078%=      5-min Rain = 0
KOD1 100433Z 22005KT 00/M03 A3036 RMK A01 T00041030  RH  078%=      5-min Rain = 0
KOD1 100434Z 23005KT 00/M03 A3036 RMK A01 T00041030  RH  078%=      5-min Rain = 0
KOD1 100435Z 22005KT 00/M03 A3036 RMK A01 T00041030  RH  078%=      5-min Rain = 0
KOD1 100436Z 22005KT 00/M03 A3036 RMK A01 T00041030  RH  078%=      5-min Rain = 0
KOD1 100437Z 23005KT 00/M03 A3036 RMK A01 T00031030  RH  078%=      5-min Rain = 0
KOD1 100438Z 23005KT 00/M03 A3036 RMK A01 T00031030  RH  078%=      5-min Rain = 0
KOD1 100439Z 22005KT 00/M03 A3036 RMK A01 T00041029  RH  079%=      5-min Rain = 0
KOD1 100440Z 22005KT 00/M03 A3036 RMK A01 T00041029  RH  079%=      5-min Rain = 0
KOD1 100441Z 22005KT 00/M03 A3036 RMK A01 T00041028  RH  079%=      5-min Rain = 0
KOD1 100442Z 21005KT 00/M03 A3036 RMK A01 T00041028  RH  079%=      5-min Rain = 0
KOD1 100443Z 21005KT 00/M03 A3036 RMK A01 T00041027  RH  080%=      5-min Rain = 0
KOD1 100444Z 22006KT 01/M03 A3036 RMK A01 T00051027  RH  080%=      5-min Rain = 0
KOD1 100445Z 22006KT 01/M03 A3036 RMK A01 T00051026  RH  080%=      5-min Rain = 0
KOD1 100446Z 22006KT 01/M03 A3036 RMK A01 T00051026  RH  079%=      5-min Rain = 0
KOD1 100447Z 22006KT 01/M03 A3036 RMK A01 T00061026  RH  079%=      5-min Rain = 0
KOD1 100448Z 22006KT 01/M03 A3036 RMK A01 T00061026  RH  079%=      5-min Rain = 0
KOD1 100449Z 23006KT 01/M03 A3036 RMK A01 T00061026  RH  079%=      5-min Rain = 0
KOD1 100450Z 23006KT 01/M03 A3036 RMK A01 T00061026  RH  079%=      5-min Rain = 0
KOD1 100451Z 23006KT 01/M03 A3036 RMK A01 T00061026  RH  079%=      5-min Rain = 0
KOD1 100452Z 23006KT 01/M03 A3036 RMK A01 T00061025  RH  079%=      5-min Rain = 0
KOD1 100453Z 23006KT 01/M03 A3036 RMK A01 T00061025  RH  080%=      5-min Rain = 0
KOD1 100454Z 23006KT 01/M02 A3036 RMK A01 T00061024  RH  080%=      5-min Rain = 0
KOD1 100455Z 23006KT 01/M02 A3037 RMK A01 T00061024  RH  080%=      5-min Rain = 0
KOD1 100456Z 23005KT 01/M02 A3037 RMK A01 T00061024  RH  080%=      5-min Rain = 0
KOD1 100457Z 24005KT 01/M02 A3037 RMK A01 T00061024  RH  080%=      5-min Rain = 0
KOD1 100458Z 24004KT 01/M02 A3037 RMK A01 T00061024  RH  080%=      5-min Rain = 0
KOD1 100459Z 23004KT 01/M02 A3037 RMK A01 T00061024  RH  080%=      5-min Rain = 0
KOD1 100500Z 23004KT 01/M02 A3037 RMK A01 T00061024  RH  080%=      5-min Rain = 0
KOD1 100501Z 23004KT 01/M02 A3037 RMK A01 T00061023  RH  081%=      5-min Rain = 0
KOD1 100502Z 23004KT 01/M02 A3037 RMK A01 T00061023  RH  081%=      5-min Rain = 0
KOD1 100503Z 23004KT 01/M02 A3037 RMK A01 T00071023  RH  081%=      5-min Rain = 0
KOD1 100504Z 23004KT 01/M02 A3037 RMK A01 T00071023  RH  081%=      5-min Rain = 0
KOD1 100505Z 23004KT 01/M02 A3037 RMK A01 T00071022  RH  081%=      5-min Rain = 0
KOD1 100506Z 23004KT 01/M02 A3037 RMK A01 T00071022  RH  081%=      5-min Rain = 0
KOD1 100507Z 23004KT 01/M02 A3037 RMK A01 T00071022  RH  081%=      5-min Rain = 0
KOD1 100508Z 23004KT 01/M02 A3037 RMK A01 T00071022  RH  081%=      5-min Rain = 0
KOD1 100509Z 23004KT 01/M02 A3037 RMK A01 T00071022  RH  081%=      5-min Rain = 0
KOD1 100510Z 24004KT 01/M02 A3037 RMK A01 T00071022  RH  081%=      5-min Rain = 0
KOD1 100511Z 24005KT 01/M02 A3037 RMK A01 T00071022  RH  081%=      5-min Rain = 0
KOD1 100512Z 24004KT 01/M02 A3037 RMK A01 T00071023  RH  081%=      5-min Rain = 0
KOD1 100513Z 24004KT 01/M02 A3037 RMK A01 T00061023  RH  081%=      5-min Rain = 0
KOD1 100514Z 25004KT 01/M02 A3037 RMK A01 T00061024  RH  081%=      5-min Rain = 0
KOD1 100515Z 25004KT 01/M02 A3037 RMK A01 T00051024  RH  081%=      5-min Rain = 0
KOD1 100516Z 26004KT 01/M03 A3037 RMK A01 T00051025  RH  081%=      5-min Rain = 0
KOD1 100517Z 26004KT 00/M03 A3037 RMK A01 T00041025  RH  081%=      5-min Rain = 0
KOD1 100518Z 26004KT 00/M03 A3037 RMK A01 T00041026  RH  081%=      5-min Rain = 0
KOD1 100519Z 26004KT 00/M03 A3037 RMK A01 T00041026  RH  081%=      5-min Rain = 0
KOD1 100520Z 26004KT 00/M03 A3037 RMK A01 T00031027  RH  080%=      5-min Rain = 0
KOD1 100521Z 26004KT 00/M03 A3037 RMK A01 T00031027  RH  080%=      5-min Rain = 0
KOD1 100522Z 26004KT 00/M03 A3037 RMK A01 T00031027  RH  080%=      5-min Rain = 0
KOD1 100523Z 26003KT 00/M03 A3037 RMK A01 T00031027  RH  080%=      5-min Rain = 0
KOD1 100524Z 26004KT 00/M03 A3037 RMK A01 T00031027  RH  080%=      5-min Rain = 0
KOD1 100525Z 26004KT 00/M03 A3037 RMK A01 T00031027  RH  081%=      5-min Rain = 0
KOD1 100526Z 26004KT 00/M03 A3037 RMK A01 T00031027  RH  081%=      5-min Rain = 0
KOD1 100527Z 26004KT 00/M03 A3037 RMK A01 T00031027  RH  081%=      5-min Rain = 0
KOD1 100528Z 26004KT 00/M03 A3037 RMK A01 T00031026  RH  080%=      5-min Rain = 0
KOD1 100529Z 26004KT 00/M03 A3037 RMK A01 T00031026  RH  080%=      5-min Rain = 0
KOD1 100530Z 26004KT 00/M03 A3037 RMK A01 T00041026  RH  080%=      5-min Rain = 0
KOD1 100531Z 26004KT 00/M03 A3037 RMK A01 T00041026  RH  080%=      5-min Rain = 0
KOD1 100532Z 26004KT 00/M03 A3037 RMK A01 T00041027  RH  080%=      5-min Rain = 0
KOD1 100533Z 26004KT 00/M03 A3037 RMK A01 T00041027  RH  080%=      5-min Rain = 0
KOD1 100534Z 26004KT 00/M03 A3037 RMK A01 T00031028  RH  080%=      5-min Rain = 0
KOD1 100535Z 26004KT 00/M03 A3037 RMK A01 T00021028  RH  080%=      5-min Rain = 0
KOD1 100536Z 26004KT 00/M03 A3037 RMK A01 T00021028  RH  080%=      5-min Rain = 0
KOD1 100537Z 25004KT 00/M03 A3037 RMK A01 T00021028  RH  081%=      5-min Rain = 0
KOD1 100538Z 25004KT 00/M03 A3037 RMK A01 T00011028  RH  081%=      5-min Rain = 0
KOD1 100539Z 25004KT 00/M03 A3037 RMK A01 T00011027  RH  081%=      5-min Rain = 0
KOD1 100540Z 25004KT 00/M03 A3037 RMK A01 T00011027  RH  081%=      5-min Rain = 0
KOD1 100541Z 25004KT 00/M03 A3037 RMK A01 T00021027  RH  081%=      5-min Rain = 0
KOD1 100542Z 25004KT 00/M03 A3037 RMK A01 T00021027  RH  081%=      5-min Rain = 0
KOD1 100543Z 25004KT 00/M03 A3037 RMK A01 T00021027  RH  081%=      5-min Rain = 0
KOD1 100544Z 25004KT 00/M03 A3037 RMK A01 T00011027  RH  081%=      5-min Rain = 0
KOD1 100545Z 26004KT 00/M03 A3037 RMK A01 T00011027  RH  081%=      5-min Rain = 0
KOD1 100546Z 25004KT 00/M03 A3037 RMK A01 T00011027  RH  081%=      5-min Rain = 0
KOD1 100547Z 25004KT 00/M03 A3037 RMK A01 T00011027  RH  081%=      5-min Rain = 0
KOD1 100548Z 26004KT 00/M03 A3037 RMK A01 T00021027  RH  081%=      5-min Rain = 0
KOD1 100549Z 26004KT 00/M03 A3037 RMK A01 T00021027  RH  081%=      5-min Rain = 0
KOD1 100550Z 27005KT 00/M03 A3037 RMK A01 T00011027  RH  081%=      5-min Rain = 0
KOD1 100551Z 26004KT 00/03 A3036 RMK A01 T00000-28  RH  081%=      5-min Rain = 0
KOD1 100552Z 26004KT 00/03 A3036 RMK A01 T00-00-28  RH  082%=      5-min Rain = 0
KOD1 100553Z 26004KT M00/M03 A3036 RMK A01 T10011028  RH  082%=      5-min Rain = 0
KOD1 100554Z 26005KT M00/M03 A3036 RMK A01 T10011028  RH  082%=      5-min Rain = 0
KOD1 100555Z 27005KT M00/M03 A3036 RMK A01 T10011028  RH  082%=      5-min Rain = 0
KOD1 100556Z 27005KT M00/M03 A3036 RMK A01 T10021029  RH  082%=      5-min Rain = 0
KOD1 100557Z 27005KT M00/M03 A3036 RMK A01 T10021030  RH  082%=      5-min Rain = 0
KOD1 100558Z 27005KT M00/M03 A3036 RMK A01 T10031030  RH  082%=      5-min Rain = 0
KOD1 100559Z 26004KT M00/M03 A3036 RMK A01 T10031030  RH  082%=      5-min Rain = 0

Page generated in 0.1554 seconds.